GFSGL_500_rhum_030.txt.gz
RH
28 29 28 30 30 31 32 38 52 59 67 62 72 78 75 74 79 73 64 60 61 86 83 52 19 11 10 14 15 17 24 38 33 33 42 44 31 28 26 24 23 22 26
32 31 32 33 33 34 45 52 93 74 76 81 80 75 73 78 81 76 72 82 89 91 36 23 11 10 13 16 19 23 29 43 41 40 44 32 29 26 26 25 29 41 47
34 35 35 37 47 60 61 63 71 80 90 88 81 81 89 90 93 100 91 99 96 40 28 16 9 11 16 20 26 24 35 46 56 40 32 30 25 26 27 38 47 56 62
42 43 48 63 72 71 71 70 88 95 93 85 92 91 84 95 100 100 97 95 39 28 18 11 12 13 19 22 25 38 51 48 36 34 31 27 26 28 42 49 60 74 57
50 54 62 70 75 80 69 69 96 92 88 87 89 91 98 100 100 100 98 92 40 21 13 12 15 16 20 29 40 61 50 38 36 33 32 27 28 41 58 69 74 58 58
59 61 67 79 72 67 75 88 88 92 94 100 92 86 100 100 100 100 92 45 21 13 13 16 20 24 31 51 52 47 42 38 34 32 28 28 34 60 80 82 64 56 38
62 74 72 65 76 84 72 82 100 99 100 100 100 100 100 100 100 100 85 32 13 14 17 20 25 31 47 54 53 41 38 33 29 28 29 31 57 87 77 75 62 54 16
59 52 59 78 87 89 95 99 92 82 96 100 100 100 100 100 98 87 39 14 14 17 21 28 29 34 49 57 49 46 37 30 27 28 31 38 74 88 83 67 64 20 31
59 68 76 74 83 75 73 80 93 100 100 100 100 100 100 92 84 35 17 12 17 20 26 32 32 48 59 56 51 43 35 28 28 33 34 50 85 88 85 64 62 18 54
80 77 76 87 92 98 100 100 100 100 100 100 100 100 96 84 36 18 12 15 19 24 32 34 38 72 70 58 52 44 33 27 27 38 36 55 88 95 90 64 60 20 58
82 86 94 100 100 100 100 100 100 100 100 100 100 100 76 31 20 13 16 19 26 34 39 40 52 77 67 62 55 48 36 27 26 32 39 44 85 95 92 62 73 21 40
97 100 95 95 100 100 100 100 100 100 100 98 87 50 24 17 14 15 22 24 33 39 44 56 80 71 71 71 64 53 42 29 25 27 40 38 77 96 96 66 82 39 26
93 85 100 100 100 100 100 100 100 100 97 70 35 20 16 18 18 23 27 36 44 46 55 83 79 79 78 79 76 62 49 35 25 25 37 37 56 98 97 88 69 96 36
91 100 100 100 100 100 100 100 99 86 54 22 15 18 21 24 26 28 29 47 53 57 78 87 87 88 91 90 88 76 61 43 30 24 25 38 38 82 98 100 68 89 96
100 100 100 100 100 100 100 84 40 17 14 12 17 27 32 30 33 35 37 48 56 77 98 100 100 95 100 99 96 86 73 57 38 27 23 25 36 40 92 100 100 64 99
100 100 100 100 100 95 55 17 14 13 16 21 35 43 36 33 37 40 54 65 67 73 84 91 97 100 100 100 100 97 85 75 54 41 28 22 24 33 42 96 100 92 64
100 100 100 83 36 19 17 16 14 14 21 29 36 42 40 40 43 47 62 70 77 80 91 92 96 98 100 100 100 100 94 88 76 62 48 30 21 23 30 46 100 100 72
81 48 25 22 21 20 21 16 14 19 24 33 43 41 42 48 48 54 72 82 90 90 94 93 95 95 100 100 100 100 100 94 86 80 68 44 29 21 22 27 57 100 100
32 35 33 34 28 26 22 16 23 31 33 34 41 49 47 51 51 66 82 95 98 97 92 93 95 96 98 100 100 100 100 97 91 89 83 56 37 27 20 22 26 72 100
49 46 38 34 30 28 21 20 25 30 38 45 47 52 53 50 52 74 96 100 100 100 95 97 100 98 98 100 100 100 100 98 92 92 93 71 52 34 24 21 22 26 81
51 40 37 35 33 26 21 27 29 30 36 43 50 49 56 54 51 69 100 100 100 100 100 100 100 100 95 98 100 100 98 98 94 93 87 85 70 44 35 24 22 23 27
42 41 40 34 21 21 26 30 33 35 40 42 47 53 57 55 51 68 100 100 100 100 100 100 100 100 89 88 99 100 100 97 94 97 96 86 76 48 44 38 26 23 24
43 38 25 18 20 24 24 26 28 30 34 43 46 53 62 57 52 58 100 100 100 100 100 100 100 100 100 92 92 100 100 100 97 97 98 95 82 56 52 50 38 27 24
31 21 18 18 21 21 21 19 21 23 25 29 37 55 66 62 56 60 99 100 100 100 100 100 100 100 100 100 97 98 100 100 100 100 95 95 90 73 60 61 49 40 30
16 16 18 17 14 13 16 16 20 23 25 28 34 50 68 69 62 67 98 100 100 100 100 100 100 100 100 100 100 98 100 100 100 100 100 97 95 90 77 64 60 57 44
18 17 12 10 12 13 15 17 21 26 28 31 34 42 59 72 70 76 88 100 100 100 100 100 100 100 100 100 100 100 98 99 100 100 100 100 100 99 85 74 67 70 59

GFSGL_500_rhum_033.txt.gz
RH
32 38 40 38 39 48 46 47 56 64 100 82 68 60 76 79 71 77 69 76 64 67 97 100 100 86 41 22 12 9 12 15 16 14 22 32 41 37 31 29 26 24 22
36 45 49 54 61 59 58 56 65 72 93 68 60 73 74 72 72 77 71 92 100 100 100 100 96 59 23 13 11 14 17 19 18 15 36 46 34 32 29 27 25 23 23
65 56 54 54 52 56 55 53 60 72 62 78 72 69 79 78 90 100 98 92 100 100 100 96 66 24 16 11 13 15 23 23 28 36 36 33 30 30 30 28 24 26 32
81 78 60 50 51 52 53 65 69 63 78 85 80 78 70 87 100 100 97 100 99 98 97 88 38 18 12 14 18 19 33 38 42 34 33 32 29 29 28 26 27 41 55
91 89 64 46 59 59 59 62 66 78 70 70 82 76 75 74 99 100 99 99 100 98 91 53 28 12 14 18 21 30 42 44 39 35 35 30 26 26 26 28 39 51 79
79 77 73 65 61 59 70 80 84 85 93 100 100 100 100 100 100 100 100 100 99 71 35 20 12 14 21 24 27 32 45 40 39 36 30 23 25 26 27 39 56 71 69
98 84 56 68 76 78 81 87 74 76 93 96 100 100 100 100 100 100 100 97 78 38 22 12 14 20 29 30 33 42 50 40 38 33 26 22 24 26 33 65 71 68 52
78 54 74 84 86 90 94 86 91 96 100 100 100 100 100 100 100 100 98 71 34 17 13 14 21 29 35 36 51 67 56 50 44 33 26 22 24 28 36 70 75 66 58
58 88 87 88 87 86 86 81 100 100 100 100 100 100 100 100 100 84 44 21 16 14 17 23 30 37 38 51 71 67 66 58 48 36 27 22 25 30 41 79 83 61 62
80 82 82 82 86 99 100 100 100 100 100 99 100 100 100 97 56 28 14 13 14 20 27 30 40 44 49 75 71 72 73 63 50 37 26 23 28 33 45 84 84 62 64
73 84 87 86 88 89 100 100 100 100 100 100 100 100 86 37 15 12 16 23 25 29 34 44 46 55 81 78 80 82 77 69 56 41 28 23 30 37 48 90 89 67 72
83 82 81 77 68 74 93 100 100 100 100 100 90 49 16 13 14 18 29 33 31 35 40 52 53 76 86 84 90 91 86 78 66 49 33 24 24 37 42 90 94 81 67
75 67 44 29 19 28 73 100 100 100 96 66 28 18 15 14 18 24 36 34 37 43 52 60 76 93 98 100 97 98 99 92 80 61 40 27 22 28 39 73 100 96 68
21 5 4 6 10 26 93 99 72 36 23 23 23 20 17 18 24 30 40 35 37 46 61 65 75 89 97 99 100 100 100 99 93 77 57 40 25 22 30 40 97 100 87
4 4 5 6 12 30 44 33 33 34 34 31 26 24 19 24 30 34 41 38 42 48 72 75 80 90 95 100 100 100 100 100 98 90 78 61 39 22 22 31 57 100 100
5 5 6 9 20 31 38 45 43 38 35 31 30 23 24 33 39 48 48 44 46 51 72 79 89 92 93 96 99 100 100 99 100 98 90 76 57 33 21 21 29 91 100
6 7 9 15 29 43 53 52 41 38 38 36 27 24 30 37 46 54 54 50 49 50 77 85 89 94 94 94 96 99 100 100 100 100 97 88 76 44 29 20 24 36 100
8 10 17 38 51 58 52 43 41 40 36 28 25 30 34 39 48 55 57 54 54 60 91 96 95 96 93 94 97 100 97 98 100 100 97 94 88 60 38 23 20 25 74
10 12 32 55 54 43 36 37 39 36 23 19 23 33 38 40 44 54 54 56 55 71 100 100 100 100 99 99 100 99 97 98 95 95 98 95 85 79 56 35 22 21 28
17 45 66 56 44 46 49 44 33 21 19 20 23 28 35 38 46 50 55 58 56 67 100 100 100 100 98 97 100 98 99 100 97 95 97 97 90 83 67 42 32 22 23
46 67 62 54 56 50 41 28 19 19 20 21 22 24 26 29 39 48 56 61 57 67 100 100 100 100 98 93 95 95 89 99 100 99 90 91 92 84 76 48 41 31 22
86 84 68 55 44 36 23 17 18 20 19 17 16 20 22 23 30 43 56 64 59 66 100 100 100 100 100 100 90 96 94 92 98 100 96 87 90 91 85 61 53 41 32
73 55 49 43 28 17 18 19 16 13 14 17 14 20 24 26 32 42 59 69 63 63 97 100 100 100 100 100 100 99 99 98 92 100 100 90 89 92 89 76 61 51 44
52 48 38 20 16 19 16 11 10 12 16 16 19 21 25 28 32 43 64 75 71 71 96 100 100 100 100 100 100 100 100 100 98 99 98 98 92 93 91 88 75 63 52
46 27 18 16 20 15 12 10 10 11 15 18 18 21 28 31 32 39 60 80 78 78 94 100 100 100 100 100 100 99 98 100 100 100 100 98 100 97 94 93 82 73 61
22 17 16 21 17 14 13 10 10 11 12 16 21 23 26 31 34 37 52 75 87 90 100 100 100 100 100 100 100 100 99 97 100 100 100 96 100 100 94 91 94 92 81

GFSGL_500_rhum_036.txt.gz
RH
50 66 78 84 85 85 75 64 59 58 54 56 62 62 62 61 70 94 95 76 83 82 100 100 100 84 100 100 93 54 37 22 13 10 13 14 18 21 31 26 23 24 25
59 80 93 98 100 89 84 86 60 56 64 62 56 53 61 73 84 86 84 95 100 100 100 100 100 100 100 99 58 30 20 14 13 16 16 24 38 36 25 29 28 25 24
80 100 99 94 88 83 88 80 64 59 54 61 63 65 70 67 68 69 76 99 100 100 100 100 100 100 92 54 28 18 13 13 20 21 20 40 41 31 30 28 23 22 25
89 89 85 83 94 82 83 76 71 67 69 71 66 69 74 76 89 91 90 93 99 99 100 99 100 91 52 22 16 13 16 23 25 26 35 46 38 34 29 23 23 24 26
100 100 100 100 94 93 83 98 72 76 72 75 78 86 88 94 100 100 100 100 100 100 100 100 79 42 17 13 13 18 26 27 30 31 56 48 42 32 25 21 20 23 36
88 88 96 93 85 94 68 72 77 85 89 97 96 95 91 100 100 100 100 100 100 100 97 60 24 14 15 17 20 28 33 33 40 57 56 48 40 28 22 21 22 25 53
89 87 97 94 73 66 79 84 90 91 95 94 99 100 100 100 100 100 100 100 98 82 36 14 13 18 22 27 32 40 38 41 56 54 55 49 38 27 22 23 24 30 51
78 76 76 79 84 90 92 86 82 87 91 100 100 100 100 100 100 100 100 90 48 16 12 14 24 27 29 32 43 44 52 71 71 67 62 52 36 26 22 24 28 41 62
58 69 92 93 89 84 91 100 88 76 64 47 45 78 100 100 100 90 45 20 14 14 17 25 30 31 33 41 48 54 83 82 84 78 69 54 36 26 21 25 29 38 74
90 96 88 82 90 94 78 50 22 7 7 9 10 84 100 79 33 27 26 22 17 17 23 32 34 37 39 50 56 83 88 93 94 91 79 60 40 27 22 22 31 44 73
89 91 84 84 74 44 10 4 4 5 6 17 38 35 32 33 36 33 30 25 20 24 33 37 38 42 51 58 79 90 96 100 100 96 90 72 48 32 23 22 30 38 82
81 83 80 58 17 4 4 4 5 6 8 16 32 40 45 35 34 34 32 25 23 31 44 43 43 47 60 71 92 100 100 100 100 94 93 84 63 44 27 21 26 35 67
81 72 43 7 4 4 4 5 7 9 14 27 46 50 46 39 40 38 31 23 28 35 52 51 49 54 69 79 86 91 99 99 97 100 99 95 77 57 38 23 21 31 49
63 26 6 4 4 5 6 7 9 14 26 39 51 48 41 39 43 36 24 24 31 40 58 57 55 58 76 86 88 90 95 96 100 100 100 99 84 68 49 27 20 26 36
18 6 5 5 5 7 8 10 12 22 37 52 55 43 43 43 40 28 21 25 31 43 56 61 57 61 82 90 92 91 92 98 100 100 100 99 93 78 61 35 21 21 27
6 5 5 7 8 9 11 13 22 38 56 55 48 51 51 44 32 21 22 29 34 45 55 62 59 75 86 97 100 94 91 97 100 100 100 99 96 90 74 44 26 20 24
6 6 7 8 9 11 14 19 31 61 66 53 58 55 44 31 20 20 25 32 36 45 55 62 61 82 100 100 99 94 100 98 99 97 98 99 98 94 82 57 37 22 22
7 8 9 10 13 17 25 41 61 73 68 59 52 41 26 19 19 23 26 30 36 47 53 59 60 78 100 100 98 97 100 100 100 99 97 97 100 97 84 68 44 32 21
8 9 10 12 15 20 35 61 73 63 53 48 38 19 20 21 20 22 23 26 33 47 55 60 62 77 100 100 100 99 100 100 99 97 97 99 93 95 89 77 53 39 26
10 12 15 18 27 45 71 72 57 53 46 26 17 19 20 18 16 18 41 30 29 46 59 65 63 83 100 100 100 100 100 98 97 93 96 99 93 89 93 86 62 47 36
13 16 19 28 48 71 62 48 45 30 18 17 19 15 11 11 12 22 27 26 26 42 65 71 66 84 100 100 100 100 100 100 100 98 96 100 100 88 91 94 76 56 44
17 23 38 53 58 48 46 37 22 18 17 19 15 11 11 10 11 15 20 26 29 41 69 76 70 89 100 100 100 100 100 100 100 100 100 98 100 100 87 90 88 67 56
39 51 46 42 43 34 22 18 16 18 20 17 13 12 11 10 12 18 20 26 30 43 79 86 80 83 100 100 100 100 100 100 100 100 100 98 100 100 97 87 89 83 70
53 38 40 33 23 17 16 15 17 23 19 16 14 12 13 14 15 21 24 27 31 39 70 92 92 85 100 100 100 100 100 100 100 100 100 99 98 100 100 95 89 87 78
40 36 24 20 18 15 16 24 26 22 19 17 14 13 14 16 18 22 25 26 31 37 57 86 100 100 100 100 100 100 100 100 98 100 100 100 100 100 100 100 97 90 88
25 22 22 20 18 21 30 29 24 22 18 14 13 13 16 21 25 26 34 34 36 38 44 72 93 100 100 100 100 100 100 100 100 100 100 100 100 100 100 100 100 99 91

GFSGL_500_rhum_042.txt.gz
RH
28 20 38 57 63 78 77 82 96 93 99 100 100 98 100 100 94 68 78 84 98 89 77 87 94 33 5 5 6 8 31 36 20 17 17 17 17 17 19 19 21 25 27
64 50 64 68 84 82 91 74 77 100 100 100 100 100 93 100 84 80 81 82 88 77 99 96 20 4 5 6 8 15 20 21 15 13 14 17 25 26 25 30 34 33 32
71 87 84 92 78 55 71 72 59 72 98 100 100 99 99 96 90 85 91 88 99 100 89 7 5 6 7 9 15 15 19 19 14 15 19 28 29 32 36 40 47 48 50
60 55 52 44 43 74 66 52 56 81 99 100 100 100 100 88 85 86 100 100 100 78 7 5 6 8 11 14 19 27 30 20 18 22 30 29 32 39 42 46 67 65 59
32 51 27 24 28 30 36 54 71 95 99 99 82 74 91 88 91 96 86 92 61 5 6 7 9 13 19 27 28 35 34 19 22 31 35 34 43 46 61 72 68 66 58
5 8 18 22 26 32 34 42 66 86 66 81 96 98 100 100 100 100 32 5 5 6 9 10 14 22 35 34 37 38 30 20 28 36 39 41 51 64 79 78 69 64 55
6 10 16 23 33 38 39 43 53 67 72 100 100 100 100 99 47 8 5 5 8 10 12 18 27 45 49 43 43 41 25 24 34 42 44 53 70 82 81 77 74 70 56
10 14 21 32 42 48 47 44 51 72 100 100 98 95 85 42 7 5 6 8 10 13 20 33 56 64 54 49 47 39 22 29 36 46 48 64 81 89 81 81 75 76 59
13 19 28 40 47 48 50 64 93 98 93 95 92 74 22 7 6 7 9 10 13 19 32 52 76 72 59 57 48 32 22 32 45 50 56 72 89 90 85 84 79 76 64
21 29 41 48 51 61 79 90 93 94 92 78 51 17 9 7 8 9 10 12 18 29 51 84 94 79 69 57 40 24 26 37 54 54 66 77 86 90 87 86 78 77 66
25 37 47 52 60 80 96 97 96 90 71 45 22 9 7 8 9 11 15 20 33 46 80 100 100 81 60 44 27 24 30 47 58 58 75 86 90 89 89 90 83 79 71
36 46 54 65 82 94 97 91 86 76 48 22 10 8 8 10 11 15 22 29 43 66 96 96 70 56 48 26 23 30 39 57 61 63 84 93 94 92 92 92 86 84 74
46 54 68 76 85 85 85 84 78 51 24 10 8 8 9 12 14 21 26 38 69 86 71 56 53 39 24 22 26 36 45 64 64 74 93 97 97 93 91 90 89 87 82
57 70 74 77 81 81 83 81 49 16 9 8 8 10 11 12 15 28 43 53 70 62 52 46 34 21 21 22 26 42 54 69 67 83 99 100 99 91 90 88 93 91 90
72 73 75 78 79 81 78 43 16 9 9 10 11 12 12 12 24 37 41 48 46 44 40 32 21 20 20 20 26 42 58 71 70 87 100 100 98 92 94 92 93 92 86
75 77 78 79 82 76 44 19 10 11 12 13 14 16 19 35 42 38 36 35 30 23 19 19 19 18 14 17 25 41 62 74 73 90 100 100 97 92 96 96 95 91 84
81 82 85 86 67 27 13 11 10 11 12 13 17 23 31 33 29 31 24 20 18 17 18 19 18 14 14 17 24 40 67 78 74 99 100 100 100 96 97 98 98 88 84
87 90 87 49 19 14 12 11 11 10 8 8 16 21 21 19 17 18 21 20 18 16 19 18 15 14 18 34 43 47 68 82 82 100 100 100 100 99 97 97 98 89 86
93 80 40 18 13 12 12 11 11 12 14 15 14 17 15 18 19 18 19 20 22 24 22 16 14 15 32 66 49 39 66 85 92 100 100 100 100 100 99 98 95 91 87
94 51 19 13 12 12 12 12 13 16 17 15 15 17 18 18 19 26 30 30 28 23 19 16 15 16 50 75 33 32 63 91 100 100 100 100 100 100 100 98 94 94 88
70 23 13 13 13 13 13 15 15 14 14 17 19 18 18 18 26 27 20 29 26 21 19 17 17 19 37 55 36 39 81 99 100 100 100 100 100 100 98 99 94 96 93
24 14 14 13 15 15 16 14 13 16 18 17 13 10 18 28 25 15 16 19 21 21 19 18 18 22 36 61 56 46 94 100 100 100 100 100 100 100 99 99 96 96 96
17 14 16 19 18 16 13 16 18 17 12 8 7 14 28 26 16 16 16 16 16 17 18 19 26 30 47 67 73 61 84 100 100 100 100 100 100 100 100 100 99 98 98
14 22 24 20 15 15 20 19 14 8 7 7 14 27 27 18 13 12 13 15 18 24 43 75 76 63 58 61 58 71 91 100 100 100 100 100 98 100 100 100 100 100 99
28 26 19 16 18 23 22 16 8 8 8 12 25 28 20 15 13 15 19 18 17 31 100 100 100 100 84 80 83 76 100 100 100 100 100 100 100 100 100 100 100 100 100
24 18 18 23 25 24 20 13 9 8 9 18 26 22 18 18 19 20 24 22 19 31 100 100 100 100 100 100 100 85 82 100 100 100 100 100 100 100 100 100 100 100 98

GFSGL_500_rhum_048.txt.gz
RH
24 22 21 26 56 70 91 90 91 87 90 92 100 100 98 82 84 78 66 100 100 100 100 88 79 100 100 100 100 100 100 67 15 8 8 11 13 21 33 46 49 43 18
39 27 27 52 62 82 86 60 75 85 94 98 100 91 82 80 61 47 81 100 99 77 69 96 100 100 100 100 100 100 96 20 9 8 11 17 26 38 59 61 56 30 19
34 26 43 62 68 58 24 30 52 64 77 54 55 60 44 43 40 47 51 60 58 72 86 100 100 100 100 100 100 98 19 9 9 11 16 28 40 70 72 60 48 22 24
30 41 45 27 23 24 23 13 15 13 25 28 30 31 34 42 51 52 55 60 72 90 99 100 100 100 100 100 68 14 9 9 12 22 27 40 68 87 68 57 34 21 36
50 45 37 14 8 9 10 11 13 15 16 20 25 32 42 52 53 61 70 91 100 100 100 100 100 100 79 37 15 10 10 13 22 33 42 67 86 71 60 41 23 25 46
28 14 9 9 10 11 12 13 14 16 18 21 27 34 41 50 61 73 90 100 100 100 100 100 88 65 30 16 11 10 14 26 33 46 68 83 62 53 42 26 23 38 52
13 9 10 12 13 14 16 16 17 20 22 24 29 36 48 61 71 81 94 96 98 99 96 81 48 19 11 10 11 14 20 32 41 50 71 68 56 46 29 22 29 48 58
11 13 13 14 15 16 17 18 22 24 26 30 37 50 64 69 79 86 87 81 79 79 59 33 18 12 12 12 15 19 30 40 41 47 54 52 48 34 24 23 38 58 65
14 14 14 15 16 17 20 26 30 32 35 41 51 64 73 76 77 76 76 73 61 45 32 23 14 12 13 15 21 27 35 49 51 46 44 43 35 28 22 26 51 62 70
13 15 16 17 18 24 33 40 42 43 47 55 66 70 74 71 66 65 61 57 51 39 26 18 13 12 19 22 24 27 34 58 53 44 39 32 26 24 23 35 63 67 75
18 18 18 20 31 43 50 51 50 53 58 68 72 74 66 55 54 60 61 53 41 38 28 16 10 13 17 23 23 28 31 32 33 32 28 24 24 21 25 51 73 72 84
19 21 25 35 43 52 57 58 59 61 67 71 74 73 62 55 58 66 59 48 39 30 16 8 9 11 14 16 20 23 27 26 28 27 24 23 22 19 33 67 73 80 86
25 33 43 49 57 61 64 65 65 68 73 73 67 62 58 62 67 68 56 41 20 10 10 9 10 12 16 20 21 24 26 25 25 24 21 21 19 22 45 78 78 86 91
50 55 56 59 65 69 68 68 70 76 75 69 63 61 61 65 69 62 47 31 14 9 8 9 11 13 16 19 20 23 24 25 25 24 22 20 19 29 61 84 83 92 91
58 56 60 64 65 63 66 69 72 74 72 65 64 70 71 72 64 52 36 20 10 6 6 8 10 8 8 9 17 25 29 25 25 27 23 22 23 42 78 88 96 97 91
67 65 62 61 64 70 68 65 71 71 66 70 73 76 76 66 53 36 19 10 7 8 10 10 6 5 6 11 23 33 31 26 24 24 32 27 46 60 91 96 100 100 95
64 60 63 71 74 69 70 73 73 68 80 92 95 85 69 54 33 18 10 7 9 11 12 10 5 5 10 22 27 29 31 26 22 25 38 30 81 86 98 100 100 100 97
72 79 76 75 70 69 70 70 73 81 91 95 88 72 54 30 16 10 8 9 12 13 14 10 6 10 23 24 20 24 26 22 21 26 24 49 84 82 100 100 100 100 99
83 83 84 76 72 70 71 79 85 93 95 87 73 59 32 17 10 10 13 15 14 13 11 8 8 16 23 17 20 25 24 22 29 23 25 71 68 72 100 100 100 100 100
93 96 88 85 86 86 89 94 100 96 87 76 57 32 16 11 12 16 18 18 15 10 8 8 9 17 17 17 20 23 24 25 35 33 34 65 72 78 100 100 100 100 100
96 91 92 97 100 100 100 100 97 88 77 53 28 16 12 12 16 20 22 21 14 8 9 9 10 14 15 17 19 21 24 32 36 45 51 81 63 95 100 100 100 100 100
94 95 99 100 100 100 100 96 90 78 48 25 17 13 14 18 20 27 28 26 15 10 10 11 14 15 16 20 23 27 34 30 32 42 74 99 74 100 100 100 100 100 100
100 99 100 100 100 99 96 91 74 40 24 20 16 17 19 21 26 32 33 27 15 12 13 15 16 18 17 21 26 39 45 47 59 74 97 97 99 100 100 100 100 100 100
100 100 100 100 98 95 91 70 34 28 26 20 21 21 24 29 34 37 34 22 16 16 18 18 21 25 25 27 46 84 100 100 100 100 93 100 100 100 100 100 100 100 100
100 100 99 98 95 86 68 49 42 37 30 25 24 27 35 39 42 38 28 20 19 21 21 19 21 26 29 31 50 100 100 100 100 100 100 100 100 100 100 100 100 100 100
99 97 95 91 75 60 59 57 53 44 32 29 31 42 47 49 44 32 23 22 23 25 22 21 23 26 30 35 47 100 100 100 100 97 100 100 100 100 100 100 100 100 100

GFSGL_500_rhum_051.txt.gz
RH
26 22 21 24 35 28 26 45 65 75 72 51 45 83 67 58 73 88 94 77 89 40 42 51 62 75 66 76 91 98 100 100 100 98 92 48 20 12 11 11 15 19 22
20 28 42 45 41 26 32 46 50 49 27 22 28 44 98 98 60 96 100 85 47 42 100 90 100 81 92 100 100 100 100 100 95 86 37 13 10 13 15 17 22 32 51
70 62 46 48 40 26 42 46 30 23 15 9 10 11 12 21 18 22 29 35 38 39 82 94 77 95 100 100 99 95 97 92 55 20 16 12 12 16 20 25 26 44 56
92 88 67 42 41 62 57 42 17 13 10 12 13 14 15 16 21 25 29 35 50 62 82 81 98 99 98 96 96 92 61 29 19 16 14 14 16 25 31 34 36 54 45
39 44 59 69 61 52 30 11 11 12 13 14 16 17 19 22 25 28 32 39 52 63 78 86 82 83 85 85 62 36 24 20 16 14 14 20 26 38 50 48 51 47 45
68 73 62 41 32 14 10 12 11 12 13 15 18 21 25 28 31 35 40 50 62 72 78 75 70 67 58 50 37 28 26 20 15 20 27 32 47 50 58 56 48 43 36
51 43 37 23 11 12 12 12 13 15 16 19 26 31 36 39 42 46 50 63 71 76 63 53 55 62 58 51 46 39 24 15 18 27 27 34 43 63 65 54 47 40 29
44 37 20 12 14 13 13 15 16 17 21 29 38 46 50 49 54 57 65 72 76 68 54 52 58 62 54 46 36 22 13 10 14 16 19 25 36 41 40 40 35 30 25
32 16 14 14 14 16 18 18 18 24 35 46 55 57 58 60 66 69 72 73 64 56 51 54 60 58 49 38 23 12 10 10 17 25 22 23 24 28 32 34 31 26 23
16 15 14 17 19 19 20 24 33 42 46 52 58 62 63 67 65 72 74 67 59 53 51 57 58 52 40 24 11 9 9 11 17 21 25 24 25 28 29 30 27 24 22
15 18 21 22 23 25 31 44 45 46 49 58 63 64 63 66 71 71 70 63 53 50 55 62 57 47 31 18 9 7 9 12 14 18 25 29 29 27 26 28 28 24 32
22 25 25 26 30 37 44 48 50 57 63 61 60 61 59 65 66 64 63 62 66 66 72 69 55 42 25 9 7 10 12 10 6 8 21 31 39 29 29 29 22 22 53
23 25 29 34 41 51 55 57 63 62 58 55 57 57 59 63 61 60 61 69 74 79 73 61 44 25 10 7 10 11 12 7 6 8 23 30 30 29 40 54 26 30 60
30 36 43 49 60 62 68 66 59 58 58 62 61 60 60 58 55 60 64 70 77 75 66 51 30 11 7 9 10 12 12 6 6 13 28 33 28 27 52 33 29 44 88
48 54 57 75 72 70 68 65 62 71 73 66 63 60 58 58 60 64 68 77 74 67 55 37 16 7 8 10 11 12 9 6 12 23 33 32 34 53 49 38 40 62 96
76 83 88 78 76 74 74 72 81 78 72 70 68 66 69 72 76 77 77 73 66 51 33 15 8 10 12 13 10 9 8 14 25 26 29 32 40 52 58 57 71 81 100
88 99 97 97 92 83 79 84 77 82 85 80 82 81 88 87 84 80 74 66 51 29 12 9 12 15 16 14 8 8 11 21 22 21 26 28 42 49 68 76 91 94 100
100 100 100 100 85 83 89 93 97 93 85 77 77 84 89 90 83 78 68 48 25 11 11 14 17 21 21 14 8 9 13 20 19 25 26 26 49 89 42 91 90 99 100
100 100 100 99 97 94 97 96 97 95 98 100 99 92 87 84 78 68 44 22 13 11 14 18 24 26 24 14 9 11 16 20 62 67 28 50 98 62 48 91 75 100 100
100 100 100 100 100 99 100 100 100 100 100 100 97 93 89 82 66 37 20 14 13 16 18 24 30 29 22 13 12 15 19 26 32 28 32 56 100 80 50 86 81 100 100
100 100 100 100 100 100 100 100 100 100 100 100 97 92 84 59 29 21 17 16 18 19 26 32 32 28 18 14 15 17 19 27 36 30 34 77 81 84 58 86 94 100 100
100 100 100 100 100 100 100 100 100 100 100 99 94 82 47 25 25 22 21 21 21 30 37 37 32 21 18 18 18 22 22 27 33 55 83 100 100 86 79 94 100 100 100
100 100 100 100 100 100 100 100 100 100 100 95 80 48 36 37 30 24 24 23 32 44 45 38 25 21 21 21 20 24 26 28 44 100 100 100 84 81 94 100 100 100 100
100 100 100 100 100 100 100 99 100 100 97 83 65 53 48 41 28 26 27 36 51 54 46 30 23 23 24 22 23 25 28 31 79 100 100 100 100 100 100 100 100 100 100
100 100 100 100 100 100 100 100 100 90 71 68 66 54 42 30 28 30 40 56 63 56 38 27 26 25 26 22 24 28 32 38 80 100 100 100 100 100 100 100 100 100 100
100 100 100 100 100 100 99 89 66 54 58 53 47 34 30 33 39 52 70 77 69 48 33 29 27 28 25 24 27 28 34 44 100 100 100 100 100 100 100 100 100 100 100

GFSGL_500_rhum_054.txt.gz
RH
57 90 94 84 47 38 35 47 45 51 49 43 40 31 24 20 12 15 16 70 44 100 97 54 46 30 32 44 81 100 100 95 82 72 71 64 47 42 38 34 30 21 15
79 99 93 71 46 48 81 68 56 33 48 56 44 19 10 9 11 12 13 14 16 17 19 24 28 37 45 52 71 82 88 77 65 54 49 45 44 40 32 24 19 15 16
40 96 98 78 87 76 63 56 46 56 62 50 24 10 10 11 12 14 16 18 22 25 29 34 39 44 54 75 86 78 64 55 56 52 45 42 40 33 24 17 13 15 17
56 71 87 99 91 81 45 47 64 58 43 21 10 12 12 13 14 16 20 26 33 39 43 46 52 60 70 75 75 59 52 53 56 51 43 40 34 22 15 16 15 18 18
45 55 49 42 29 30 56 68 51 39 15 11 13 13 14 15 16 19 28 39 44 48 52 56 59 69 76 78 70 57 54 55 56 52 45 37 25 13 13 22 25 32 30
48 30 27 39 63 79 65 40 32 13 14 13 13 15 16 17 25 34 38 43 53 59 60 64 70 75 77 67 62 56 56 63 61 51 36 21 12 10 15 27 36 38 30
51 57 80 81 58 41 38 20 13 14 13 16 18 18 23 33 37 38 43 54 60 61 59 64 75 78 73 64 55 51 55 69 60 43 28 15 9 11 15 24 29 30 29
41 33 32 39 41 34 16 15 15 15 19 20 22 27 36 40 41 50 60 58 56 57 61 64 73 74 66 60 54 54 60 61 50 37 19 10 8 12 16 22 27 30 32
31 42 45 39 28 16 17 15 18 21 22 24 34 40 42 42 54 64 56 52 51 52 53 60 64 64 62 63 62 62 58 55 42 26 8 9 13 14 14 9 16 34 34
37 39 35 18 17 18 18 22 24 26 30 35 40 48 49 49 55 57 56 54 52 52 55 57 60 61 62 65 63 57 52 45 32 10 8 10 13 14 10 8 19 36 39
37 29 17 18 18 20 26 28 27 29 35 45 55 58 61 58 54 55 60 59 58 57 56 57 61 62 61 62 61 57 46 31 10 7 9 12 13 11 8 17 36 40 64
20 18 18 18 24 29 28 27 34 45 48 61 67 68 64 59 54 64 66 66 63 59 57 59 57 57 57 57 56 49 29 9 8 10 12 11 10 8 13 24 30 36 33
18 18 19 23 23 23 29 46 60 63 69 75 72 72 71 68 72 78 75 68 62 58 61 62 61 63 61 58 51 26 9 8 10 12 13 9 8 11 20 30 32 31 34
18 21 24 27 30 43 55 77 88 83 82 83 88 82 78 79 81 77 73 68 67 72 73 71 68 65 61 52 27 9 9 11 14 16 12 8 12 24 30 33 33 48 36
24 28 34 50 62 68 76 86 100 100 96 97 94 83 82 84 79 78 76 76 77 83 77 71 67 63 53 27 9 9 12 16 19 18 11 9 19 27 30 44 80 76 50
28 45 76 83 82 81 88 91 88 100 100 100 100 99 96 91 84 86 86 88 87 86 78 71 66 51 26 9 10 13 17 22 22 18 10 12 22 24 29 64 80 70 74
92 97 98 100 100 96 93 89 80 100 100 100 100 100 100 95 88 90 96 95 90 84 77 66 46 19 9 12 15 18 23 25 23 14 12 18 22 26 41 81 78 70 70
100 100 100 100 98 100 96 97 100 100 100 100 100 100 100 100 100 100 96 92 89 82 66 36 13 11 14 17 20 28 30 28 16 14 18 23 40 33 48 67 86 72 84
100 100 100 100 100 100 100 100 100 100 100 100 98 96 96 97 99 96 92 89 82 66 32 12 13 16 18 20 29 37 34 20 17 17 25 89 100 100 65 87 100 55 97
100 100 100 100 100 100 100 100 100 100 100 100 100 100 100 99 98 97 93 86 65 26 13 15 18 20 23 30 41 41 26 19 20 22 32 100 95 76 88 100 100 66 97
100 100 100 100 100 100 100 100 100 100 100 100 100 100 100 100 99 95 90 59 22 15 16 20 23 26 31 45 49 39 22 21 22 27 48 99 100 100 100 100 100 83 96
100 100 100 100 100 100 100 100 100 100 100 100 100 100 97 98 97 86 47 21 18 19 22 26 32 38 51 58 50 30 24 23 23 30 34 76 100 100 75 100 100 88 100
100 100 100 100 100 100 100 100 100 100 100 100 99 99 100 97 71 34 24 20 21 25 32 40 49 61 70 63 41 28 25 25 22 27 32 65 100 100 100 100 100 92 100
100 100 100 100 100 100 100 100 100 100 100 100 100 96 72 33 24 20 21 24 29 35 42 50 65 76 72 52 34 29 27 25 24 26 30 41 98 100 100 100 100 100 100
100 100 100 100 100 100 100 100 100 100 99 90 59 24 17 17 19 23 27 30 32 32 38 56 72 72 58 42 32 30 28 24 27 28 31 43 100 100 100 100 100 100 100
100 100 100 100 100 100 100 99 94 75 41 16 14 15 18 22 24 25 24 20 18 21 33 47 60 59 50 36 32 31 28 31 31 30 38 60 100 100 100 100 100 100 100

GFSGL_500_rhum_057.txt.gz
RH
88 86 67 86 87 94 94 89 73 62 97 99 92 47 54 47 24 11 10 11 12 14 15 16 19 24 31 39 44 49 54 58 54 56 63 67 64 57 53 52 50 48 42
80 85 97 97 97 94 96 80 93 91 73 50 51 53 46 34 15 9 12 13 14 15 16 19 27 35 45 52 56 56 54 55 52 49 59 64 60 57 58 64 58 49 42
98 97 86 94 71 90 96 98 89 75 50 49 62 52 39 19 10 13 13 15 16 18 24 32 40 50 56 50 43 44 48 48 54 57 64 64 60 61 60 56 51 43 34
55 70 36 39 49 83 90 77 54 39 54 75 62 44 27 12 13 13 16 17 21 30 37 42 43 41 34 37 42 42 43 46 61 66 64 60 55 59 54 48 45 34 17
65 69 76 52 65 60 46 36 55 84 84 62 38 26 12 13 13 17 17 19 32 38 40 38 41 40 40 40 40 41 44 53 61 64 61 57 54 52 50 46 33 15 9
23 40 38 34 23 26 51 54 85 63 35 37 26 13 14 14 18 18 22 30 38 41 43 45 44 44 42 41 42 46 50 57 59 62 56 52 48 51 48 29 12 10 13
34 28 23 26 37 40 60 34 31 37 37 19 14 14 16 19 20 19 27 37 42 46 49 49 46 45 46 48 52 54 57 67 69 57 51 50 49 50 35 13 9 12 16
27 28 37 48 36 38 26 32 35 29 16 16 15 17 20 20 19 23 33 42 50 52 51 47 49 52 56 59 57 59 63 62 60 59 58 54 52 36 12 9 11 14 15
32 46 51 24 17 31 34 31 23 15 15 16 19 20 19 21 29 37 42 53 56 58 59 58 62 67 67 66 64 59 57 59 60 58 58 54 35 13 9 11 13 14 12
45 37 21 17 25 30 30 19 15 16 16 18 19 19 24 47 58 57 61 67 67 72 68 72 74 73 71 68 66 66 64 63 57 52 51 36 13 8 10 14 16 10 12
20 16 16 25 32 32 19 15 16 17 20 23 23 32 57 73 78 76 78 75 82 78 74 75 76 77 79 79 77 76 71 64 56 50 37 14 7 10 13 16 13 10 96
16 18 23 28 28 17 17 17 18 25 29 27 37 58 67 89 95 93 87 91 92 91 97 96 90 85 82 78 78 76 70 63 53 34 12 7 10 14 18 17 12 11 19
19 20 24 18 15 17 18 20 27 29 34 62 73 78 81 94 88 92 100 100 100 99 100 100 95 87 79 76 80 79 70 57 35 13 8 10 14 20 20 17 10 15 28
12 14 16 17 19 21 25 28 32 47 86 99 100 99 96 98 78 83 100 100 100 100 100 100 97 88 85 85 83 78 60 29 10 8 12 15 20 22 21 13 12 26 32
16 18 22 23 25 27 32 39 75 93 99 100 100 100 99 85 80 87 100 100 100 100 100 100 100 95 91 87 84 71 32 9 10 14 16 20 25 24 15 13 23 32 46
22 27 28 29 31 37 61 96 100 100 100 100 100 97 100 99 99 100 100 100 100 100 100 99 96 92 88 85 75 42 11 10 14 18 22 28 28 18 14 19 31 100 100
52 49 52 57 76 99 100 100 100 100 100 100 100 100 100 100 100 100 100 100 100 99 100 97 96 93 87 78 47 13 11 16 20 23 30 34 26 15 18 23 30 34 94
100 100 100 97 96 100 100 100 100 100 100 100 100 100 100 100 97 98 100 100 100 100 99 98 94 89 80 47 12 13 16 21 25 34 42 36 19 19 27 40 40 55 96
100 99 99 100 100 99 100 100 100 100 100 100 100 100 100 100 100 100 100 100 100 100 100 97 91 78 36 12 14 17 19 21 23 47 50 27 21 26 57 98 98 97 64
100 100 100 100 100 100 100 100 100 100 100 100 100 100 100 100 100 100 100 100 99 96 94 93 66 20 14 16 19 20 19 23 34 53 43 24 24 39 98 100 98 98 100
100 100 100 100 100 100 100 100 100 100 100 100 100 100 100 100 100 100 99 98 98 98 81 31 15 16 19 20 19 15 16 25 39 53 30 26 26 37 82 100 100 100 100
100 100 100 100 100 100 100 100 100 100 100 100 100 100 100 100 100 100 100 100 83 37 15 15 18 19 19 16 14 15 19 32 51 40 29 28 27 39 88 100 100 100 95
100 100 100 100 100 100 100 100 100 100 100 100 100 100 100 100 100 98 78 34 15 14 16 18 18 16 15 15 16 17 21 41 46 34 29 29 33 45 93 100 98 100 95
100 100 100 100 100 100 100 100 100 100 100 100 100 100 100 94 62 20 12 12 14 16 17 15 15 15 16 17 18 23 35 47 40 31 30 27 30 38 82 100 100 100 96
100 100 100 100 100 100 100 100 100 100 100 99 95 73 32 11 10 11 13 14 15 14 15 17 17 17 18 19 23 36 52 46 34 32 30 29 31 32 40 100 100 100 100
100 100 100 100 100 100 100 100 99 93 72 36 13 8 9 10 11 12 13 14 16 17 18 18 18 18 19 24 39 59 50 36 34 33 36 35 33 35 42 100 100 100 100

GFSGL_500_rhum_060.txt.gz
RH
58 76 96 78 59 56 83 98 95 95 97 73 82 99 97 74 55 64 46 31 19 10 11 12 14 15 16 26 32 38 38 37 28 30 32 37 39 44 50 52 56 57 58
62 100 96 98 97 97 98 98 94 99 100 91 70 77 60 60 63 47 36 17 10 12 14 16 17 16 22 35 38 37 41 37 32 33 34 39 42 45 50 54 63 64 53
100 98 97 92 98 97 89 92 97 96 85 87 73 64 57 66 57 39 22 12 14 15 18 17 14 21 31 36 43 47 42 34 38 40 41 45 47 54 59 67 64 58 53
89 98 91 81 88 85 61 85 86 67 66 44 72 79 75 63 36 31 16 16 16 18 17 14 17 26 36 40 44 48 41 45 46 48 50 55 60 60 62 61 56 55 47
61 68 70 67 60 67 68 65 48 63 64 54 76 74 46 35 35 18 16 15 18 18 16 18 26 34 40 48 52 49 50 52 54 58 64 64 60 62 64 62 60 54 48
49 54 59 48 46 64 57 62 62 72 51 38 49 43 40 35 19 15 16 19 19 18 19 28 37 43 48 58 58 55 56 56 62 65 65 65 67 67 65 62 58 52 37
36 40 48 61 53 44 47 51 76 49 55 46 34 36 31 17 16 16 20 20 19 24 46 55 57 57 62 66 63 66 68 72 72 74 75 74 67 67 66 63 58 42 19
30 33 41 50 44 46 55 65 77 53 32 36 33 24 17 18 17 19 22 23 24 37 61 74 72 70 71 71 72 79 86 94 96 97 88 81 78 76 74 67 47 21 9
18 23 35 38 36 40 51 53 18 18 30 31 29 17 17 17 18 23 24 25 46 63 70 77 79 81 81 80 89 95 98 95 96 98 94 90 82 79 74 56 28 10 8
25 30 31 30 36 36 22 16 14 20 27 29 18 16 17 18 23 26 33 59 75 87 89 93 88 84 81 89 99 98 95 97 94 97 100 92 84 78 63 34 10 8 12
15 22 15 16 15 14 14 15 20 27 32 24 16 17 19 23 29 35 45 79 98 100 100 99 78 69 73 90 96 97 98 94 95 93 85 82 80 71 51 15 8 11 16
16 12 13 14 15 16 18 22 28 30 21 16 17 19 22 30 37 60 89 100 100 100 100 86 73 70 83 96 100 100 100 100 96 85 82 82 73 62 17 8 10 14 21
10 11 12 12 14 17 20 24 22 16 16 18 19 23 32 34 81 100 100 100 100 98 91 84 82 88 100 100 100 100 100 97 92 87 85 79 66 22 8 9 11 19 24
11 11 11 12 14 15 15 16 17 18 19 21 24 33 38 53 99 100 96 90 100 100 94 86 90 98 100 100 100 100 99 98 94 91 83 72 23 8 10 10 11 24 22
21 18 18 18 17 18 19 19 20 21 24 28 36 57 95 100 100 100 100 100 100 100 98 94 98 100 100 100 99 100 100 100 96 92 70 18 9 10 10 11 18 22 16
42 40 35 32 32 33 38 48 60 66 69 83 97 100 100 98 100 100 100 100 100 100 100 100 100 100 100 100 100 100 100 99 95 63 12 11 11 10 11 16 22 17 20
87 92 98 98 93 89 88 90 98 98 100 100 100 100 100 100 100 99 100 100 100 100 100 100 100 100 100 100 100 99 97 93 46 11 11 12 12 12 14 23 22 18 27
100 100 100 98 96 94 96 99 100 100 100 100 100 100 100 100 100 99 99 100 100 100 100 100 99 100 99 98 99 98 82 20 12 13 13 12 13 15 20 35 21 23 60
100 100 100 100 100 100 100 100 100 100 100 100 100 100 100 100 100 100 100 100 100 100 100 100 100 100 100 100 96 49 13 14 14 13 13 14 16 20 35 31 28 55 100
100 96 98 91 74 65 87 100 100 100 100 100 100 100 100 100 100 100 100 100 100 100 100 100 100 100 98 67 19 14 14 15 14 14 15 16 17 26 45 28 36 64 100
99 99 99 94 52 44 72 99 100 100 100 100 100 100 100 100 100 100 100 100 100 100 100 100 99 70 22 13 14 15 14 14 15 16 17 17 21 43 40 29 37 100 100
100 100 99 73 85 100 100 100 100 100 100 100 100 100 100 100 100 100 100 100 100 100 91 50 18 12 13 14 15 14 15 17 17 17 17 20 36 49 33 30 37 95 100
86 98 100 100 100 100 100 100 100 100 100 100 100 100 100 100 100 100 100 99 76 30 13 12 12 14 15 14 15 16 17 18 17 18 20 34 53 40 32 32 34 61 100
100 100 100 100 100 100 100 100 100 100 100 100 100 100 100 100 100 85 48 19 11 11 11 12 14 14 15 16 17 18 19 17 18 22 36 55 44 33 34 33 35 67 100
100 100 100 100 100 100 100 100 100 100 100 100 100 98 78 39 17 12 10 10 11 12 13 14 14 15 17 18 20 19 18 19 24 39 59 45 35 34 32 35 37 71 100
100 100 100 100 100 100 100 100 100 98 90 66 32 15 12 9 9 9 10 11 12 13 14 15 16 19 20 20 18 17 21 31 51 64 46 38 36 36 36 38 39 69 100

GFSGL_500_rhum_063.txt.gz
RH
98 98 86 80 91 85 71 51 55 87 86 96 98 83 52 93 97 98 96 96 62 54 39 27 12 11 12 12 16 14 16 22 28 35 40 47 45 48 48 45 50 61 63
100 100 99 98 98 94 95 95 96 98 96 99 98 97 96 90 82 70 85 59 59 48 33 21 12 12 14 17 15 14 18 29 36 42 47 53 51 52 53 57 62 66 70
91 98 98 97 98 97 95 97 98 97 99 96 97 97 96 66 97 86 63 67 51 30 25 16 13 14 16 17 15 21 34 46 53 56 60 59 57 62 67 75 78 87 92
41 53 74 90 97 97 93 79 85 90 95 86 62 65 57 51 82 87 73 45 25 30 19 15 16 18 20 17 26 46 58 63 64 62 62 63 71 78 88 89 82 92 86
29 36 38 52 55 62 56 46 60 70 63 54 72 65 61 70 80 57 47 40 34 21 16 16 20 20 21 23 41 62 70 69 70 72 81 87 91 97 100 100 96 84 82
31 27 31 39 51 49 53 58 52 52 56 56 58 73 73 83 61 41 38 33 20 17 17 18 21 22 27 45 65 80 83 80 81 79 92 95 100 100 100 100 94 83 80
17 12 30 40 38 52 73 71 60 54 62 60 78 97 91 64 39 33 30 19 16 17 16 19 24 30 53 80 92 92 88 86 77 69 68 86 94 100 98 88 88 86 76
16 16 34 48 48 60 59 54 50 45 44 66 84 85 54 41 32 34 21 17 18 18 19 26 31 40 76 97 99 93 100 91 82 70 68 84 92 96 94 90 87 81 76
30 37 32 41 53 54 56 54 62 79 89 79 60 34 17 29 34 35 22 18 18 19 21 30 45 84 100 100 100 100 98 91 79 78 88 95 99 100 100 94 98 92 81
30 45 39 38 41 51 63 49 67 57 61 42 27 16 23 31 34 33 20 18 19 23 33 45 66 99 97 99 100 100 100 92 88 94 98 100 100 100 100 100 100 95 85
19 31 28 23 29 49 45 28 32 30 23 18 18 23 28 32 34 24 19 21 23 30 44 49 62 98 100 100 99 100 98 99 100 100 99 99 100 100 100 100 100 91 79
18 17 19 18 17 18 15 13 14 16 18 19 22 25 28 28 21 19 22 24 29 41 47 80 97 100 100 99 94 95 98 98 100 97 95 100 100 100 100 100 92 83 34
20 15 16 17 16 11 10 12 13 15 16 18 20 20 19 17 20 24 27 33 49 62 93 100 100 98 96 95 96 100 100 100 99 100 100 100 100 100 96 89 85 42 8
34 33 26 23 26 26 21 16 14 14 16 17 18 19 21 22 26 32 44 64 97 100 100 99 98 100 100 100 100 100 100 100 100 100 100 100 96 96 94 88 42 9 9
69 62 35 24 24 30 36 37 35 34 30 28 28 31 42 56 80 97 100 100 100 100 100 100 100 100 100 100 100 100 100 100 100 100 99 97 97 96 87 24 10 10 12
86 82 84 82 70 56 49 47 58 86 93 96 99 100 100 100 100 100 98 93 100 100 100 100 100 100 100 100 100 100 100 100 100 100 99 99 98 78 19 11 12 13 14
96 94 94 94 93 95 98 100 100 100 100 100 100 100 100 89 86 98 100 100 99 100 100 100 100 100 100 100 100 100 100 100 100 100 100 99 67 12 12 12 14 15 16
100 100 100 100 100 98 99 100 98 99 97 98 99 100 100 99 99 100 100 100 100 100 100 100 100 100 100 100 100 100 100 100 100 100 93 35 12 12 13 14 16 16 18
100 100 100 100 100 100 99 100 100 100 100 100 100 94 80 67 64 90 100 100 100 100 99 99 100 100 99 100 100 100 100 100 98 57 13 13 13 14 15 16 18 17 28
98 99 100 100 100 100 100 100 100 100 100 100 99 100 99 100 100 100 100 100 100 100 100 100 100 100 100 100 100 100 99 51 14 13 14 14 14 16 16 18 18 19 40
98 93 94 99 100 98 98 99 98 91 89 100 100 100 100 100 100 100 100 100 100 100 100 100 100 100 100 100 91 31 12 13 13 14 14 16 17 18 19 19 19 28 47
42 99 100 100 100 100 84 81 97 100 100 100 100 100 100 100 100 100 100 100 100 100 100 100 100 94 53 17 11 12 12 14 14 15 16 18 20 20 19 19 24 50 43
30 54 84 96 96 100 99 99 100 100 100 100 100 100 100 100 100 100 100 100 100 100 95 59 18 11 11 12 12 13 14 14 15 17 20 21 21 19 19 25 46 51 36
100 100 100 100 100 100 100 100 100 100 100 100 100 100 100 100 100 100 100 92 53 19 10 10 10 11 12 12 13 14 16 18 19 21 21 20 19 20 26 54 55 38 38
100 100 100 100 100 100 100 100 100 100 100 100 100 100 100 90 58 23 11 10 10 10 10 11 11 11 12 13 16 18 20 20 19 17 17 19 25 43 63 55 39 39 42
100 100 100 100 100 100 100 100 100 100 96 81 52 22 14 10 9 9 10 10 10 10 10 10 11 14 16 16 15 14 14 14 14 15 21 42 66 68 48 40 42 46 44

GFSGL_500_rhum_066.txt.gz
RH
96 100 97 95 88 71 60 66 71 56 48 49 51 83 94 94 97 87 84 96 99 100 99 94 93 68 50 34 20 13 15 20 20 18 18 37 55 60 64 63 68 72 76
32 97 98 91 98 99 98 96 99 94 95 66 94 98 93 98 97 98 95 98 98 97 95 84 75 63 47 25 16 15 23 23 19 17 21 49 67 69 67 69 77 77 80
26 38 90 94 96 94 96 95 82 98 99 98 95 95 94 99 98 97 96 98 97 97 89 68 65 37 29 20 17 18 20 18 18 20 31 53 70 72 70 71 67 68 69
30 24 32 44 57 55 83 71 63 88 83 98 98 97 98 95 98 96 97 92 98 94 80 50 40 33 24 17 17 18 20 22 24 31 40 62 73 76 73 76 74 71 68
32 31 49 48 41 38 60 75 72 62 52 65 57 71 78 84 76 66 71 87 89 74 49 42 32 27 18 17 16 18 23 24 37 66 83 87 85 87 81 82 77 73 69
47 38 38 48 30 26 38 57 81 77 84 81 78 93 96 95 95 98 82 94 98 54 30 32 27 18 18 18 19 21 28 54 77 86 93 95 100 98 98 95 89 85 79
68 59 47 24 15 21 41 52 73 87 89 89 73 77 87 95 71 78 96 96 90 71 34 32 23 18 19 20 23 30 39 51 66 86 97 99 100 100 98 95 94 84 84
65 20 15 15 16 24 41 64 80 93 88 87 92 78 80 68 78 92 99 89 48 23 32 35 27 20 22 25 27 39 51 73 78 92 99 100 100 99 94 88 88 83 81
77 19 13 20 31 45 50 48 50 58 69 75 72 83 81 77 86 76 58 24 16 23 29 35 31 22 23 29 36 57 71 90 94 98 100 100 100 100 96 90 87 80 74
35 18 13 16 32 44 39 26 25 28 48 54 42 38 30 37 40 37 24 18 24 29 31 31 26 26 30 36 47 73 87 96 100 100 100 99 98 99 95 94 93 93 91
26 22 29 36 28 20 22 17 18 18 25 30 27 20 20 18 24 18 20 23 26 28 28 27 27 31 36 46 65 86 95 100 100 100 100 100 100 100 100 100 100 100 97
32 46 54 42 22 16 14 13 12 13 14 12 12 22 23 15 16 17 20 24 24 22 24 26 34 44 78 100 100 100 100 100 100 100 100 100 100 100 100 100 100 100 100
52 55 60 44 33 29 24 23 22 19 20 24 30 20 18 18 18 20 22 25 27 29 36 51 90 100 100 100 100 99 100 100 100 100 100 100 100 100 100 100 100 100 100
99 76 62 61 57 30 28 32 29 25 29 35 37 37 36 37 37 38 40 44 53 73 96 100 100 100 100 99 100 100 100 100 100 100 100 100 100 100 100 100 100 100 99
69 58 70 56 55 71 81 84 79 78 78 69 62 60 65 76 85 88 94 99 100 100 100 100 100 100 99 96 99 100 100 100 100 100 100 99 99 100 100 100 100 100 97
97 96 87 97 97 96 98 96 96 100 100 100 100 95 95 100 100 100 100 100 100 100 100 100 100 97 91 94 100 100 100 100 100 100 100 100 100 100 100 100 100 92 34
96 98 98 95 100 100 96 100 100 100 100 100 100 100 100 100 100 100 100 100 100 100 100 100 100 100 100 100 100 100 100 100 100 100 100 100 100 100 100 100 70 13 12
91 96 100 95 96 98 98 100 100 100 100 100 100 100 100 100 100 100 100 100 99 97 98 100 100 100 100 100 99 97 100 100 100 100 100 100 100 100 89 28 13 13 13
100 100 98 99 99 99 99 99 99 99 100 100 100 100 100 100 100 100 99 98 98 100 100 100 100 100 96 95 97 98 100 100 100 100 100 100 86 28 14 14 13 13 15
100 100 100 99 100 100 100 100 92 90 94 96 100 100 100 100 100 100 99 100 100 100 100 98 98 98 99 99 100 100 100 100 100 99 64 20 13 14 13 14 14 15 18
100 100 100 100 100 100 100 100 87 69 83 99 100 98 99 94 96 100 100 100 100 100 100 100 100 100 100 100 100 100 96 54 15 12 13 13 13 14 14 15 18 21 22
100 100 89 71 68 62 50 42 40 60 88 87 92 97 99 100 100 100 99 98 100 100 100 100 100 100 99 82 45 16 10 11 12 12 12 13 14 18 20 21 21 21 21
84 81 71 55 56 61 75 92 100 100 100 100 100 100 100 100 100 100 100 100 100 100 99 90 62 27 12 10 10 10 10 11 12 12 14 17 19 20 19 18 18 20 21
92 95 98 100 100 100 100 100 100 100 100 100 100 100 100 100 99 100 100 94 74 40 14 9 9 9 10 10 11 11 12 13 15 17 17 14 13 14 14 16 18 24 40
100 100 100 100 100 100 100 100 100 100 100 100 100 100 100 95 82 49 19 10 8 9 9 9 10 10 10 11 12 14 17 17 14 10 10 11 12 13 15 21 37 60 66
100 100 100 100 100 100 100 99 98 95 86 69 45 22 13 8 8 8 8 9 10 10 11 11 12 12 13 15 17 15 10 8 8 7 7 10 15 22 38 64 71 59 47

GFSGL_500_rhum_069.txt.gz
RH
65 80 99 98 89 88 92 96 99 93 90 85 86 55 55 67 81 93 95 88 84 79 91 78 93 99 98 96 96 97 96 81 28 19 16 16 21 21 22 23 29 51 74
30 54 82 92 99 93 93 86 97 96 98 100 100 98 79 52 71 99 100 98 98 97 100 98 98 98 99 98 96 85 57 29 23 18 17 20 24 21 29 43 73 77 73
41 31 39 63 71 95 97 94 59 88 72 75 89 98 98 98 100 98 98 95 98 98 97 98 98 98 98 98 93 74 38 29 22 17 17 19 24 33 41 52 67 72 82
54 36 36 31 31 38 57 52 37 61 71 59 59 66 100 97 99 82 86 89 99 99 98 100 98 95 95 80 53 44 32 26 20 18 20 22 27 30 35 48 70 80 97
66 48 44 36 28 30 50 51 41 43 64 76 62 53 76 94 73 83 96 98 97 95 97 96 96 98 91 45 31 30 30 21 18 18 20 24 33 39 42 54 67 88 100
66 75 49 48 48 43 41 37 26 24 50 77 88 76 72 66 92 98 97 97 92 96 96 88 94 88 81 58 36 33 32 23 21 22 23 28 37 42 48 63 83 99 97
87 73 56 49 42 42 36 23 14 20 44 58 75 94 99 96 90 96 96 94 78 80 67 63 78 74 53 21 32 39 39 31 22 23 26 32 54 68 79 96 100 97 92
96 88 94 86 53 20 13 13 14 21 32 46 56 64 80 84 96 99 89 85 74 73 72 77 68 43 20 24 30 34 35 28 30 36 42 51 73 91 96 100 94 93 96
95 90 92 83 55 31 15 14 21 36 43 32 26 28 40 60 62 57 58 65 53 37 65 45 93 32 23 30 33 33 38 41 44 54 84 99 98 100 99 95 96 94 97
78 77 50 49 43 26 17 15 31 38 32 24 18 18 19 30 37 35 27 20 20 20 32 70 79 26 31 31 31 42 58 59 68 100 100 99 99 99 100 97 95 98 97
92 94 62 49 40 33 46 53 41 25 20 17 15 15 14 14 12 12 14 18 25 32 80 88 28 27 31 40 51 58 68 96 100 100 100 98 100 100 98 98 97 94 93
100 95 86 86 94 96 99 89 86 43 30 25 23 21 21 22 23 24 43 45 66 100 57 27 33 37 44 55 72 98 100 100 100 100 100 100 100 100 100 100 100 98 98
96 92 99 97 89 99 98 94 65 55 51 38 30 40 40 33 31 38 81 98 82 39 43 48 59 73 89 100 100 100 100 100 100 100 100 100 100 100 100 100 100 100 100
98 94 92 95 100 100 97 85 77 62 69 84 87 90 81 80 76 99 89 69 74 83 90 99 100 100 100 100 100 100 100 100 100 100 100 100 100 100 100 100 100 100 100
98 95 100 98 97 97 99 97 98 81 86 88 92 95 97 100 100 100 100 98 99 100 100 100 100 100 100 100 100 100 100 100 100 100 100 100 100 99 100 100 100 100 100
96 98 98 98 99 95 100 99 98 100 99 96 100 99 99 100 100 100 100 100 100 100 100 100 100 100 100 100 100 100 100 98 99 99 99 99 99 98 99 100 100 100 100
97 100 100 98 100 95 100 97 100 98 92 100 100 100 100 100 100 100 100 100 100 100 100 100 100 100 100 100 100 94 94 96 100 99 99 94 92 95 100 100 100 100 95
100 94 96 100 94 78 95 100 100 96 100 100 100 100 100 100 100 100 100 100 100 100 100 100 100 100 100 100 100 100 100 98 91 87 88 93 100 100 100 98 71 23 12
100 100 100 94 95 100 100 100 100 100 100 100 100 100 100 100 100 99 98 96 97 100 99 96 95 96 98 98 94 90 86 85 86 91 99 100 100 78 27 11 10 11 12
100 100 100 100 99 99 100 100 100 100 100 99 100 100 99 97 96 87 58 53 75 89 86 93 96 92 92 88 84 85 89 96 100 99 70 26 10 9 10 10 11 12 12
91 89 93 100 100 100 100 100 100 97 92 90 83 74 63 63 64 74 89 100 95 98 94 91 89 88 86 89 94 99 93 61 22 10 9 9 9 10 11 11 12 14 17
84 80 87 98 100 100 100 96 100 99 97 94 97 99 98 99 100 99 97 96 93 94 93 92 94 94 91 75 45 18 9 8 8 8 9 10 11 12 13 14 16 18 17
100 94 92 96 100 100 100 100 100 100 100 100 100 98 96 96 95 93 93 94 94 95 92 82 61 36 17 9 8 8 8 9 9 10 10 11 12 14 16 15 12 10 11
100 100 97 100 100 100 100 100 100 100 100 100 100 97 97 98 96 96 96 85 64 45 29 13 8 8 8 8 8 9 10 10 10 11 13 16 14 9 7 8 8 10 14
100 100 100 100 100 100 100 100 100 99 99 100 100 100 98 83 61 34 20 12 8 7 7 7 8 8 9 10 10 10 10 12 16 16 11 8 7 6 5 7 11 19 27
98 100 100 100 100 100 100 100 98 87 70 48 29 16 11 8 7 7 7 7 7 8 9 10 10 10 10 11 13 17 18 15 10 9 8 7 7 8 14 26 44 62 66

GFSGL_500_rhum_075.txt.gz
RH
27 25 22 23 27 23 36 64 63 57 55 66 72 70 59 58 53 34 43 45 45 47 51 58 68 74 70 67 68 48 51 56 70 95 100 99 98 100 99 93 38 35 30
30 30 31 25 31 35 29 25 36 63 62 63 58 62 68 69 67 66 78 90 82 68 70 64 77 82 83 94 99 96 96 98 97 94 98 98 98 98 88 63 32 25 28
33 38 36 34 40 40 44 44 22 26 31 47 63 67 44 38 54 60 61 64 70 90 98 100 98 84 80 100 100 97 98 96 98 98 99 98 96 92 78 73 43 22 20
50 54 46 49 49 52 49 58 41 28 28 27 51 45 35 28 25 37 63 60 56 63 74 83 96 100 99 97 100 98 95 96 95 98 96 94 84 83 78 70 37 19 19
60 49 62 63 70 64 61 76 62 56 41 28 29 28 28 28 25 23 27 46 59 52 68 80 87 86 91 99 98 98 97 97 98 97 85 85 93 78 78 47 28 30 24
74 62 76 76 78 68 73 73 63 64 60 49 44 37 34 33 32 22 23 43 54 62 64 70 61 81 92 97 95 85 85 85 96 92 100 73 94 73 68 76 93 78 40
82 92 85 78 76 81 79 77 76 81 73 56 58 45 40 39 33 17 34 49 52 68 87 94 93 96 99 95 97 98 91 95 78 79 84 81 55 87 100 96 98 56 34
76 87 86 66 59 69 68 77 75 83 74 70 63 58 20 16 17 34 52 45 42 51 62 86 92 92 99 98 100 100 100 100 93 77 54 67 85 100 100 98 92 86 42
84 88 84 79 65 61 76 76 77 90 76 69 67 61 49 18 16 24 48 60 64 66 65 52 51 65 66 62 77 83 81 70 41 76 30 80 85 47 88 98 97 76 71
88 100 98 100 85 86 100 91 82 79 53 36 40 56 55 43 22 21 33 50 52 52 50 39 41 34 30 35 39 40 29 24 96 48 52 95 100 100 100 100 100 95 99
95 92 92 89 100 99 99 99 99 84 56 69 64 43 72 53 37 50 50 38 41 36 28 23 20 18 18 20 21 23 29 87 88 66 93 100 99 100 100 100 99 100 100
100 98 97 95 99 100 100 85 94 88 74 77 91 96 97 94 86 89 71 72 56 44 39 36 38 37 35 36 41 48 72 70 100 91 100 100 100 100 99 100 100 100 100
100 100 99 98 96 98 99 98 98 91 94 97 97 96 99 98 99 99 98 95 100 99 96 86 72 93 97 97 97 99 100 100 100 100 100 100 99 99 100 100 100 100 100
100 100 100 99 98 100 98 98 99 100 97 99 99 98 99 92 96 100 97 95 97 98 100 99 99 100 99 100 98 96 100 100 100 100 100 99 98 100 100 100 99 99 98
100 99 98 96 98 98 100 99 98 100 100 94 99 98 96 91 99 99 97 96 97 100 100 99 100 98 98 98 100 100 100 100 99 100 99 94 97 93 91 97 99 94 94
75 86 84 79 85 82 99 99 100 100 99 98 98 97 94 94 98 98 100 90 92 95 100 100 100 100 100 100 100 100 100 99 98 98 99 98 99 91 87 90 92 92 89
100 100 100 100 97 94 95 84 85 89 85 88 99 100 99 98 100 100 99 100 100 100 100 100 100 100 100 100 100 98 93 99 100 100 98 91 87 89 90 89 87 87 83
98 85 93 100 99 97 100 96 100 99 96 93 98 100 100 100 100 100 100 100 100 100 100 100 100 100 99 97 97 99 97 93 88 85 84 85 86 87 88 88 80 61 34
99 100 99 100 100 100 100 100 100 100 100 100 100 100 100 100 100 100 100 100 100 100 100 100 100 100 99 97 97 92 91 91 90 89 87 86 85 83 69 43 20 13 11
92 99 100 96 100 100 98 100 100 100 100 100 100 100 100 100 100 100 100 100 100 100 100 100 100 100 98 100 100 97 99 96 96 89 90 82 55 26 15 13 9 6 6
100 100 100 100 100 100 100 100 100 100 100 100 100 100 100 98 98 100 100 100 100 100 99 99 97 99 100 100 99 97 99 99 94 74 35 15 12 9 7 6 6 5 5
100 98 100 100 100 99 95 93 95 97 100 100 100 100 100 100 100 100 100 100 100 100 100 100 100 100 100 100 100 98 88 65 24 11 9 8 6 6 5 6 6 6 8
87 90 89 87 92 99 98 100 100 100 100 100 100 100 100 100 100 100 100 100 100 100 100 100 100 98 96 83 42 16 10 9 8 7 6 6 6 7 7 8 9 9 8
85 95 98 100 100 100 100 100 100 100 100 100 100 100 100 100 100 100 100 100 100 97 94 78 62 41 21 12 9 8 7 7 7 7 7 8 9 10 11 10 9 8 9
95 93 89 90 95 100 100 100 98 98 100 100 100 100 100 98 93 85 66 48 33 27 25 15 10 9 8 8 8 8 8 9 9 10 10 12 12 11 10 10 11 16 17
87 90 89 89 92 93 96 96 94 92 90 89 88 89 85 78 62 42 28 17 12 10 9 8 8 8 8 9 9 10 11 12 13 14 14 13 12 13 18 26 36 48 50

GFSGL_500_rhum_078.txt.gz
RH
23 24 24 25 23 26 28 23 25 51 52 46 50 48 61 68 58 58 53 46 45 49 50 58 77 96 99 94 100 100 89 97 77 77 82 89 96 99 95 96 98 100 99
28 30 27 26 30 30 41 38 34 18 28 60 60 54 54 53 53 55 54 56 58 62 72 70 63 65 63 84 86 77 90 98 96 93 91 99 96 97 99 98 98 100 98
38 43 38 32 36 35 37 44 42 43 45 22 25 31 57 64 58 51 40 40 48 54 54 57 69 77 83 76 71 78 87 86 86 87 88 90 92 100 97 83 92 98 97
45 45 42 36 48 48 43 47 55 59 57 46 30 27 28 44 45 37 29 26 25 31 49 58 58 60 88 100 96 100 100 100 93 95 97 93 95 94 98 94 100 99 83
50 51 53 56 57 53 59 59 67 55 61 64 61 43 32 36 43 42 38 34 28 28 26 46 69 74 93 100 100 92 100 98 96 96 95 88 86 92 94 100 88 84 72
52 63 65 57 58 54 60 70 75 72 65 75 63 62 60 44 42 40 37 36 35 30 24 29 67 84 83 94 94 99 96 96 93 83 99 87 90 98 100 97 92 63 58
43 57 73 80 78 74 68 81 86 81 78 72 82 88 80 66 58 59 42 40 39 33 23 29 62 73 94 92 92 90 97 99 98 98 98 99 100 80 71 97 96 99 80
96 99 85 75 75 75 74 73 68 70 77 84 83 78 78 81 65 62 64 36 25 34 39 50 58 60 64 65 83 98 90 98 94 96 99 95 100 97 79 87 86 69 70
90 90 100 100 98 100 79 83 91 83 76 67 84 69 72 86 58 54 56 53 31 18 28 32 52 59 60 68 68 58 50 58 66 60 52 41 32 29 19 31 88 87 100
39 42 62 83 90 85 92 91 81 78 89 76 72 70 98 89 62 55 36 37 48 45 25 17 18 34 48 56 53 43 39 36 24 17 16 18 25 32 33 40 86 100 100
40 55 67 63 82 98 91 94 95 89 69 79 81 91 98 94 72 74 96 79 85 90 66 72 78 78 74 68 48 37 30 29 29 32 37 36 40 58 91 100 100 99 100
42 39 52 75 73 99 96 89 94 99 94 100 95 95 94 76 68 79 96 96 93 99 98 94 89 88 88 85 85 66 56 71 65 63 74 88 95 90 99 99 100 100 99
42 49 67 75 93 95 98 98 100 96 97 95 98 91 89 75 68 77 90 96 92 97 97 99 98 100 95 89 87 92 88 85 94 99 100 100 96 100 100 100 100 100 100
41 58 77 79 63 88 97 97 100 99 91 89 99 78 77 100 92 99 98 99 99 98 98 100 99 98 95 86 83 84 90 91 100 100 100 99 100 92 93 99 100 100 98
47 54 88 100 100 100 100 100 95 79 95 98 86 92 98 86 95 92 88 98 100 99 99 98 99 100 98 96 96 100 100 100 100 100 100 100 100 100 100 100 100 93 92
29 61 86 98 100 99 93 92 100 100 98 100 100 96 97 97 99 99 98 99 99 99 98 100 99 99 100 100 100 100 100 100 100 100 100 100 100 100 99 93 88 89 85
64 62 82 84 85 76 98 99 94 82 91 88 81 72 96 99 96 94 99 96 100 98 100 100 100 99 100 100 100 100 100 100 100 100 100 100 100 100 94 94 94 88 88
19 77 87 100 100 98 89 98 85 97 100 85 100 99 99 99 100 100 100 90 100 99 100 100 100 100 100 100 100 100 100 100 100 100 100 100 98 97 98 100 97 91 93
92 85 100 99 99 90 96 100 100 100 98 85 81 100 100 100 100 100 100 100 100 100 100 100 100 100 99 100 100 100 100 100 99 98 99 100 99 100 97 93 94 88 64
100 100 100 100 100 98 98 100 100 100 100 97 100 100 100 100 100 100 100 100 100 100 100 100 98 100 100 100 100 99 99 100 99 96 92 92 91 88 88 82 69 48 23
86 93 97 97 97 100 100 100 100 97 97 100 100 100 100 100 100 100 100 100 100 100 100 99 100 100 100 100 100 100 98 97 96 91 86 86 75 67 47 26 14 9 7
71 68 65 74 81 79 86 87 83 82 88 95 97 99 98 98 100 100 100 100 100 100 100 100 100 100 99 99 97 94 91 90 80 70 59 36 16 11 9 7 6 6 6
78 69 68 66 68 74 86 98 99 98 100 100 100 100 100 100 100 100 100 100 100 100 98 98 97 93 90 85 78 65 49 31 16 11 10 8 7 6 6 7 8 8 8
92 87 81 78 75 80 91 100 100 100 94 89 89 90 92 95 94 89 90 90 89 88 84 77 65 50 30 20 15 13 11 9 8 8 7 7 7 8 9 9 10 11 11
95 89 87 85 82 80 81 83 87 87 85 84 82 85 88 88 86 77 63 50 37 28 21 16 15 13 12 10 9 8 7 7 7 8 8 9 10 11 13 14 14 14 15
94 91 91 93 94 94 92 90 89 86 83 78 72 64 52 41 32 25 22 18 16 14 11 10 9 8 7 7 7 8 8 9 11 12 12 14 16 19 18 16 18 24 31

GFSGL_500_rhum_081.txt.gz
RH
22 22 23 24 25 24 25 28 29 28 26 54 57 55 52 37 63 64 60 52 35 36 36 37 42 56 64 64 75 80 86 85 71 86 88 88 90 99 100 100 96 92 98
34 24 24 25 27 29 31 31 34 36 34 25 36 66 68 61 57 58 58 55 57 67 71 64 65 61 61 54 56 61 62 82 81 100 97 80 88 97 87 91 91 90 95
26 40 33 33 36 32 36 36 36 41 44 48 38 34 33 39 51 61 68 60 49 43 52 56 72 75 75 92 96 92 95 88 80 71 66 75 99 100 94 92 99 90 83
26 36 46 48 49 43 36 39 44 44 49 60 61 51 38 32 32 49 63 54 42 32 32 37 46 51 61 65 67 71 94 99 100 98 93 95 97 100 99 99 98 97 90
43 34 41 50 51 56 55 52 50 49 54 60 68 68 71 69 52 44 34 38 46 46 42 36 32 29 28 39 71 84 89 89 99 98 100 99 91 100 100 100 100 98 100
66 43 38 44 45 51 59 60 60 57 58 64 68 73 72 80 91 84 78 64 45 39 38 38 40 41 33 29 51 71 86 87 94 100 100 98 92 100 98 99 99 100 100
100 95 58 39 34 43 63 67 70 66 61 69 81 78 83 88 87 99 93 78 66 59 59 54 34 36 37 29 33 38 59 72 87 96 90 89 91 97 97 96 93 92 87
84 90 96 97 82 77 59 54 57 63 62 70 78 62 62 69 79 95 96 81 76 58 41 52 55 32 19 33 47 56 53 50 51 57 59 70 59 99 66 96 68 46 20
35 42 55 67 82 96 96 97 88 93 89 77 75 77 68 82 67 86 100 84 73 74 66 31 34 44 43 23 21 21 25 35 50 58 56 63 50 63 90 27 22 58 38
14 20 22 23 38 65 90 99 100 97 100 100 94 79 72 74 99 84 100 98 78 77 77 62 67 53 74 78 54 44 60 74 72 69 76 76 66 51 53 36 44 51 56
11 11 13 14 12 22 45 69 92 100 98 100 100 100 100 100 90 70 80 98 96 91 86 69 69 77 99 100 97 95 93 87 86 83 88 95 90 93 77 76 83 79 80
18 18 14 16 14 11 11 27 53 77 92 92 100 98 96 93 86 95 94 99 95 96 70 65 59 60 70 88 93 92 97 98 94 89 81 94 93 99 87 90 94 94 97
9 11 20 27 31 23 16 12 24 54 88 100 98 96 86 96 98 100 98 100 100 100 86 60 64 72 74 63 98 100 98 99 100 88 99 100 100 89 86 95 100 100 100
6 5 5 7 14 40 54 43 36 35 58 88 100 100 99 100 98 94 96 93 93 100 97 82 85 93 84 100 98 99 97 99 99 100 99 100 100 100 100 100 100 100 100
6 6 5 5 5 6 16 46 67 73 56 55 67 94 100 95 97 90 93 100 86 100 90 99 95 98 99 97 99 99 99 99 100 100 100 99 99 100 100 100 100 100 100
6 5 5 4 5 5 6 12 33 42 82 99 94 98 99 93 96 85 88 87 82 94 98 98 97 97 98 96 98 99 97 100 100 100 99 95 98 100 100 100 100 99 99
6 6 5 5 4 6 6 6 15 50 63 50 71 86 82 64 100 84 100 98 94 100 100 94 94 100 100 100 100 100 100 100 100 99 91 99 100 100 100 100 100 92 88
26 84 97 95 55 28 8 8 34 54 83 100 100 99 95 99 100 99 100 81 91 100 100 99 100 100 100 100 100 100 100 100 100 100 100 100 100 100 100 100 100 96 87
75 95 99 100 100 100 87 95 73 84 97 98 100 99 100 98 100 100 100 100 100 100 100 100 100 100 99 100 100 100 100 100 99 100 100 100 100 100 98 97 91 83 80
74 89 95 98 100 100 99 100 100 95 95 100 100 100 100 100 98 100 100 100 100 100 100 100 100 100 100 100 100 100 97 100 100 100 100 98 96 92 84 77 71 64 57
95 98 100 100 95 96 98 97 96 100 100 99 100 100 100 98 98 100 100 100 100 99 99 98 97 98 99 100 98 98 98 97 95 92 87 80 71 68 63 51 32 19 14
97 97 96 93 92 94 90 80 78 72 65 68 73 86 92 99 100 100 98 97 92 98 98 99 98 98 95 89 87 84 78 71 69 67 63 52 36 24 16 12 9 7 6
98 100 100 100 93 90 87 86 80 78 75 72 76 86 96 97 96 96 93 86 81 76 73 71 70 69 67 61 56 57 57 51 40 26 17 12 9 8 6 6 6 6 7
99 99 100 100 94 90 92 93 92 91 88 89 90 88 86 87 84 78 79 76 71 68 66 66 62 56 46 35 24 17 15 12 10 8 7 6 6 6 7 8 9 10 10
100 100 100 100 100 100 96 92 89 89 88 90 90 88 85 80 73 69 64 56 48 39 33 24 20 17 14 12 10 9 8 7 6 6 7 8 9 10 11 11 12 15 18
100 100 99 100 100 98 96 96 92 88 83 79 77 70 58 43 34 26 22 18 15 14 13 11 10 9 8 8 8 7 7 7 8 9 11 13 13 13 14 17 21 22 20

GFSGL_500_rhum_087.txt.gz
RH
24 19 18 15 16 18 19 19 21 22 21 24 29 35 26 24 24 27 31 30 37 42 52 78 95 98 97 97 97 96 86 84 62 85 93 100 96 98 100 100 100 97 95
25 20 19 20 20 20 23 24 26 25 24 25 25 25 27 47 51 49 44 38 40 49 54 53 55 45 44 46 47 44 45 56 66 63 84 91 100 100 96 86 86 89 96
36 38 34 24 21 22 24 25 25 28 29 30 33 36 36 36 30 30 43 57 62 62 60 56 60 52 54 63 68 65 60 60 58 56 61 71 74 79 81 82 90 87 85
64 66 68 69 65 44 33 28 26 27 28 32 36 38 41 44 45 48 46 39 29 28 34 47 68 76 62 54 50 47 52 57 63 62 58 46 37 38 49 59 67 82 77
96 97 96 93 94 90 67 64 51 32 32 37 37 39 43 45 48 56 62 62 57 50 44 43 36 34 39 40 41 42 41 38 37 33 29 26 25 28 32 36 29 87 58
79 87 99 97 99 97 95 95 98 98 91 70 53 50 51 54 56 57 61 66 73 71 65 66 69 65 62 65 61 58 39 30 27 23 21 21 22 29 34 35 32 25 42
75 74 78 94 97 97 95 98 96 97 95 91 93 94 98 91 88 79 72 71 71 74 84 88 86 80 75 76 73 68 69 67 56 59 47 34 32 31 28 32 40 48 56
88 93 93 87 75 79 86 83 100 98 98 97 97 97 97 96 98 100 99 98 93 91 90 97 84 88 89 89 93 91 87 84 76 73 67 69 47 33 39 27 25 29 31
96 87 84 89 83 85 77 79 81 97 98 99 99 98 97 97 98 96 96 95 83 77 87 99 100 97 88 95 92 89 78 83 94 85 93 88 92 87 76 89 84 86 72
83 67 65 56 44 42 70 74 62 54 64 92 97 97 97 98 99 99 99 98 96 95 91 82 78 83 84 96 95 90 95 88 87 79 100 84 86 94 96 88 87 98 98
68 61 64 64 56 41 16 13 26 36 42 48 60 70 74 65 68 72 83 92 96 97 98 97 92 89 93 100 100 98 93 90 96 94 84 96 89 85 98 99 89 75 82
55 44 32 23 16 12 11 11 13 14 15 13 15 16 19 19 24 34 40 49 70 79 88 95 95 98 92 95 98 97 98 98 98 95 94 91 92 85 78 78 92 96 92
18 10 8 10 11 10 10 9 8 8 7 7 6 6 6 7 8 10 14 19 24 36 58 64 70 93 92 95 70 96 95 96 98 98 98 94 98 84 99 85 70 79 99
13 10 10 10 10 9 8 7 6 6 5 5 5 4 4 4 4 3 3 3 4 5 13 29 37 87 98 86 99 95 94 98 97 98 100 84 99 100 99 99 100 94 100
13 12 12 12 11 10 9 8 8 7 7 6 5 5 4 4 3 3 3 3 3 4 9 7 83 28 93 96 93 95 98 97 99 96 98 98 99 100 98 96 98 99 98
16 15 14 13 12 10 10 9 9 9 8 8 6 5 4 4 3 3 3 3 4 5 5 6 14 27 16 53 93 100 98 90 88 100 99 100 98 94 79 87 100 98 96
19 18 16 14 13 14 14 13 12 12 11 11 8 6 6 6 5 17 18 14 12 17 12 12 57 14 46 36 67 90 98 100 100 98 100 100 100 100 100 100 100 100 100
22 21 19 18 18 18 18 17 18 18 16 14 10 10 16 34 37 50 72 99 100 98 71 32 36 100 99 85 91 88 89 100 100 100 100 100 100 100 100 100 100 100 100
26 26 26 27 28 30 28 26 24 21 19 15 14 18 44 51 64 59 72 100 99 100 100 100 100 100 100 100 100 100 100 100 100 100 100 100 98 98 99 100 100 100 98
39 38 39 40 39 36 34 31 28 23 21 20 32 50 64 68 82 88 93 97 92 94 99 100 100 100 100 100 100 100 100 100 100 100 100 100 100 99 98 93 83 70 63
51 50 49 48 40 34 28 28 32 39 37 52 88 94 92 93 98 100 100 100 98 84 82 80 73 73 74 86 98 100 100 100 100 97 92 88 82 75 71 63 56 52 48
21 20 22 27 32 41 72 89 96 94 91 89 92 91 95 99 100 100 100 100 100 96 91 85 81 80 81 82 86 94 96 96 89 84 78 71 65 60 55 47 41 34 28
37 47 55 54 69 85 81 88 83 80 90 100 100 100 100 97 100 100 100 100 100 100 100 97 91 89 86 82 79 77 74 70 65 62 59 54 48 40 30 24 19 15 12
63 64 63 70 85 96 100 100 99 98 99 100 99 100 100 100 100 100 100 100 99 97 95 93 90 85 81 74 69 64 59 54 49 40 33 23 17 13 12 10 8 8 7
85 88 93 95 97 100 100 100 100 100 100 100 100 100 100 100 100 100 96 93 90 91 90 86 78 70 57 43 34 24 16 14 14 13 11 10 9 8 8 8 8 8 9
98 98 100 100 100 100 100 100 100 100 100 100 100 100 100 100 98 92 80 68 56 48 39 32 26 19 16 14 13 11 10 10 10 10 10 10 10 9 9 9 10 12 14

GFSGL_500_rhum_090.txt.gz
RH
25 27 18 18 16 13 15 16 14 18 19 19 21 23 22 20 22 32 28 29 34 37 43 43 45 65 81 98 98 90 94 96 86 94 97 99 96 94 94 89 91 90 86
22 26 24 19 19 17 15 16 19 20 20 21 20 18 16 17 25 31 29 28 33 36 50 62 66 58 54 60 61 56 58 61 63 49 53 64 76 85 87 80 80 79 83
40 23 24 23 22 22 21 20 20 20 22 24 25 26 27 29 29 28 24 28 40 52 57 55 54 50 51 56 60 63 64 60 56 52 46 51 57 61 63 67 70 76 80
93 72 39 59 65 68 53 44 28 26 24 25 26 27 28 29 31 34 37 39 40 36 26 22 26 31 37 45 51 58 58 55 54 50 49 43 42 44 47 47 42 44 37
97 95 88 85 81 87 94 86 79 68 58 60 39 30 32 34 37 39 41 41 41 42 43 46 51 48 38 28 22 28 26 28 30 31 29 29 32 32 33 36 29 35 33
98 97 97 97 98 97 100 98 99 98 94 80 85 76 48 41 46 47 48 50 52 50 50 48 49 57 68 67 60 58 54 48 48 46 44 41 44 51 46 47 42 33 28
98 98 97 91 85 71 84 95 94 96 98 98 97 95 95 93 90 91 89 85 82 79 75 70 62 57 63 67 78 75 74 67 56 56 48 52 52 68 76 81 88 84 76
98 100 93 82 80 76 72 79 78 74 72 83 88 94 97 100 91 91 93 92 95 94 99 100 100 99 95 91 87 77 75 77 81 70 55 51 51 58 69 72 79 90 85
88 98 96 92 85 84 88 93 86 78 74 75 76 83 97 100 98 99 100 98 98 96 100 100 100 97 98 98 93 91 92 89 92 87 78 72 67 75 81 79 67 78 74
100 100 99 100 98 99 91 82 69 75 82 81 92 91 75 72 85 99 100 99 96 100 100 99 95 90 100 100 99 99 93 98 99 95 99 78 68 71 76 78 84 99 98
100 100 100 99 98 92 77 69 62 42 30 24 31 47 41 41 44 47 61 72 79 84 79 71 62 63 68 84 94 95 94 96 98 97 98 99 79 74 77 84 99 100 100
97 100 97 95 92 68 54 43 35 31 29 22 15 12 13 13 14 14 13 13 13 12 13 21 34 30 16 24 36 51 73 97 97 95 86 93 97 97 95 98 96 98 100
98 98 93 70 36 23 22 13 11 9 8 9 8 8 8 7 7 6 6 5 5 5 4 4 4 4 4 3 3 6 11 97 79 65 62 78 93 96 99 99 99 100 98
40 32 31 31 27 16 13 12 12 11 10 9 9 8 7 7 6 6 6 6 5 5 5 4 4 3 3 3 3 3 4 5 24 99 87 98 98 97 99 99 99 99 99
27 26 23 21 18 16 15 14 13 13 12 11 11 10 10 9 8 8 8 7 7 7 6 5 4 3 3 3 3 4 8 98 41 42 100 83 58 66 96 99 97 100 94
28 24 22 20 18 18 17 16 16 15 14 13 12 12 12 12 11 10 9 9 9 8 6 6 5 4 5 8 7 11 15 74 17 21 36 26 40 54 90 98 100 100 100
52 46 40 33 29 27 25 24 23 22 19 17 14 12 12 12 13 13 12 11 12 10 8 7 9 11 17 28 69 56 35 31 68 73 63 65 78 100 100 100 100 100 100
52 48 45 41 37 32 29 26 23 21 19 18 17 18 18 17 16 15 15 16 16 12 10 14 26 33 39 65 68 85 98 96 97 100 100 100 100 100 100 100 100 100 100
47 43 37 31 29 29 31 31 30 28 26 25 25 23 24 25 27 28 25 21 17 17 26 42 59 76 85 86 87 94 96 100 100 100 100 100 100 100 100 100 98 99 100
30 29 29 29 31 33 37 39 40 40 40 41 38 36 34 27 25 22 22 23 35 61 82 83 92 96 100 100 99 97 100 100 100 100 100 100 100 100 100 100 98 92 87
41 39 37 35 30 27 25 23 22 20 20 20 21 22 27 45 57 71 86 83 78 86 83 88 91 100 100 100 100 100 100 100 100 100 100 100 98 92 87 80 74 69 64
28 26 25 25 22 22 23 24 26 28 34 42 61 76 98 98 86 85 93 100 100 100 99 94 93 99 100 100 100 100 100 99 99 98 93 84 78 74 70 65 59 54 48
59 50 45 48 43 39 37 40 46 47 48 58 70 72 78 92 98 99 100 100 100 100 99 98 99 99 99 99 98 98 96 93 90 88 86 82 74 66 58 49 38 28 20
76 79 70 65 64 65 66 67 72 76 74 81 88 90 93 98 98 99 100 100 99 99 97 97 96 96 95 94 92 89 85 81 74 60 47 36 28 21 17 13 12 10 10
84 93 95 93 88 87 90 87 87 90 94 99 100 100 99 100 100 100 100 100 100 100 100 96 93 89 85 76 61 43 30 25 20 16 14 13 12 11 11 10 9 9 8
99 99 97 94 93 94 96 96 95 96 98 99 99 99 99 98 96 95 93 91 89 87 84 78 66 48 30 19 16 13 12 12 11 11 11 11 10 10 9 8 9 9 10

GFSGL_500_rhum_093.txt.gz
RH
45 20 16 20 16 17 12 13 12 10 11 14 14 15 16 15 16 17 19 26 28 30 41 60 74 67 51 45 47 74 78 89 83 100 98 100 94 98 97 83 78 72 69
44 22 16 21 19 18 18 14 14 17 17 17 16 12 13 16 18 20 21 19 21 20 21 24 28 29 30 34 45 51 58 68 72 56 57 67 73 89 78 56 56 58 57
68 68 26 23 26 20 19 20 19 18 20 21 24 25 25 24 23 23 22 22 21 21 25 30 37 39 42 47 49 49 48 48 46 47 54 55 57 62 58 56 55 53 60
75 75 68 28 32 36 35 29 24 23 24 25 25 26 28 29 29 30 32 34 35 36 36 36 34 33 28 24 22 25 27 30 36 38 48 58 54 54 52 49 44 42 40
92 96 94 63 36 40 49 56 60 56 55 60 60 33 33 37 32 31 32 34 37 39 41 43 42 43 45 44 40 49 43 39 36 28 23 24 28 33 33 38 30 46 38
96 97 98 97 90 77 77 94 92 95 97 98 93 98 90 66 59 52 45 48 44 44 47 49 54 56 56 58 56 56 56 55 56 58 56 54 55 60 61 55 47 43 46
94 98 97 98 97 97 98 97 98 99 98 100 96 89 92 83 86 89 96 92 90 86 80 82 84 92 96 94 94 87 87 84 81 81 76 73 69 77 82 76 67 58 51
98 95 98 97 97 96 96 93 77 75 84 86 76 77 74 76 88 84 94 96 88 94 97 100 95 96 98 98 98 98 100 100 100 97 88 87 76 76 84 86 89 78 71
98 96 98 100 96 99 93 90 80 82 77 70 71 68 62 60 71 89 100 95 91 99 99 94 80 90 88 98 98 89 100 100 96 100 97 85 82 84 83 94 95 86 89
98 97 99 100 93 94 99 94 91 88 90 93 74 63 55 50 56 60 75 87 83 78 78 80 88 94 100 100 100 98 95 97 95 96 98 95 95 94 100 100 98 98 99
96 94 100 98 98 96 93 99 99 94 88 84 70 54 47 43 34 26 25 28 34 35 35 36 38 42 34 40 48 46 38 53 66 72 80 37 69 80 94 97 99 100 99
99 100 96 100 97 98 99 99 100 99 93 95 94 68 56 42 26 17 14 11 9 9 8 8 9 8 7 6 6 5 4 4 4 4 13 4 6 12 95 54 88 93 89
96 100 99 96 96 99 98 97 96 80 62 46 36 24 13 9 9 9 9 9 8 8 7 7 6 6 6 5 5 5 4 4 4 3 3 3 3 7 26 8 25 100 77
91 96 97 94 92 85 80 62 46 42 39 28 19 15 12 12 11 11 10 10 9 9 8 8 8 7 7 6 6 6 6 5 5 4 4 3 3 3 17 10 4 5 17
72 56 55 79 61 48 34 23 22 19 18 15 14 13 14 13 12 12 11 11 11 10 10 10 10 9 9 9 8 8 8 7 6 5 4 4 5 5 8 48 94 80 84
72 67 64 59 42 29 24 22 21 20 19 18 18 18 18 18 17 18 17 16 15 13 12 13 13 13 12 11 12 12 12 9 8 8 10 12 21 40 41 33 40 32 78
66 62 59 55 52 49 45 42 40 38 35 32 29 27 26 24 24 23 22 20 19 18 18 17 17 18 19 19 20 18 14 11 11 13 24 36 45 46 55 74 92 98 97
56 54 50 48 45 41 40 42 41 38 35 30 23 21 21 23 24 25 26 26 29 27 27 29 29 29 27 23 20 18 17 21 36 62 75 89 87 83 84 92 98 100 100
39 36 33 32 28 26 24 23 22 23 23 25 25 28 30 31 30 29 30 30 28 27 26 24 23 23 23 23 25 36 64 81 86 89 92 96 100 100 99 100 100 100 100
30 30 32 32 30 27 27 30 31 31 31 30 28 24 22 20 20 20 18 18 19 20 21 27 34 55 76 93 88 87 88 88 91 94 96 100 100 100 100 100 100 99 98
37 40 40 38 34 31 29 27 24 22 20 18 18 18 17 17 20 22 26 27 33 42 76 94 96 95 96 99 100 100 100 100 100 100 100 100 100 100 100 100 99 99 94
39 36 32 29 28 26 25 25 25 27 26 28 32 30 27 28 32 38 40 51 68 73 76 75 82 90 93 100 100 100 100 100 99 100 98 98 95 93 90 88 85 82 78
35 37 40 39 40 45 54 57 61 62 58 54 52 54 58 60 65 72 70 77 77 88 88 86 94 95 97 100 100 100 100 97 94 93 92 89 87 80 71 58 47 38 27
80 78 79 81 83 83 81 83 84 87 92 91 86 86 91 92 88 89 90 91 92 92 91 88 89 89 87 86 84 82 81 81 77 72 67 60 51 37 26 19 14 13 12
66 73 80 87 94 98 98 99 100 100 100 100 99 97 96 93 89 88 88 87 86 86 86 85 84 83 82 80 78 76 74 71 57 37 22 17 15 14 13 12 11 11 10
31 31 30 30 32 34 38 44 47 57 70 81 88 93 94 93 90 89 91 91 93 94 96 95 91 86 78 65 47 27 18 16 15 14 14 13 12 12 11 11 11 12 12

GFSGL_500_rhum_096.txt.gz
RH
92 73 64 53 42 13 15 13 11 11 14 18 19 18 17 18 15 15 23 33 44 40 37 38 43 46 57 70 76 65 49 41 43 67 86 78 76 70 74 90 93 93 94
94 70 64 58 43 15 16 17 14 14 14 13 15 16 15 16 20 20 19 18 18 20 20 19 22 25 30 35 33 31 26 27 24 32 52 63 54 46 49 51 55 53 47
91 68 69 65 34 18 20 17 18 16 16 18 19 21 22 22 21 19 18 18 18 19 19 22 26 24 26 30 33 33 36 36 34 36 41 43 45 54 53 56 56 50 51
91 75 77 71 65 32 25 21 19 20 19 18 20 21 23 24 26 26 28 29 31 31 32 33 34 34 35 33 32 31 29 33 34 31 35 33 26 31 25 28 31 34 36
73 77 78 75 78 52 25 30 25 22 23 21 22 23 24 25 24 25 26 26 27 28 30 34 36 37 38 40 42 47 54 62 66 60 54 57 57 58 58 55 46 48 43
89 94 98 92 87 83 62 25 30 32 36 43 49 52 77 70 85 66 46 50 51 48 41 47 52 49 54 60 66 78 89 87 82 83 87 82 88 94 96 95 88 85 78
97 98 97 94 99 100 95 74 32 34 53 70 97 91 73 79 78 77 84 95 90 82 82 82 81 83 88 86 86 90 97 99 93 89 78 79 81 87 87 96 100 94 85
98 98 98 98 96 97 97 97 97 90 95 96 92 93 88 88 76 77 79 85 84 89 71 72 89 97 97 96 92 98 98 100 96 97 99 98 97 93 100 99 100 94 100
92 99 97 95 90 88 98 97 97 96 98 94 82 80 76 70 72 74 70 66 66 62 54 58 73 85 91 93 98 95 98 97 96 95 98 97 96 83 100 99 98 98 94
98 98 93 96 94 98 99 98 100 98 97 96 85 78 70 65 67 65 64 60 55 53 48 46 53 60 72 62 50 47 42 39 34 39 41 69 55 44 34 24 22 82 54
97 96 97 97 96 98 99 96 98 98 98 92 89 82 71 68 66 67 68 61 59 54 48 43 40 32 26 22 20 19 15 10 8 7 6 6 6 5 5 4 4 4 4
97 98 98 95 100 96 98 100 96 91 93 96 98 98 94 88 86 86 83 82 64 52 43 38 32 21 17 13 10 8 7 7 6 6 5 5 4 4 4 4 4 4 4
98 98 98 98 98 99 98 98 97 97 98 100 96 100 99 100 100 86 61 36 22 14 12 10 9 9 9 9 9 8 8 7 7 7 7 7 6 6 6 6 6 5 4
97 98 98 100 99 97 98 98 100 100 98 96 97 95 81 60 37 26 20 18 15 14 12 11 11 11 10 10 10 9 9 9 9 9 9 9 9 8 8 8 8 8 7
87 94 95 91 95 96 97 98 100 97 97 99 96 86 61 34 28 26 22 18 15 13 12 13 12 13 13 13 14 15 13 12 10 10 10 11 11 11 12 12 12 10 9
86 84 82 82 81 74 62 47 35 38 41 37 26 23 21 20 19 18 17 17 17 17 19 20 20 20 20 19 18 18 17 16 16 16 16 17 20 21 19 17 14 14 17
66 69 78 73 68 64 60 59 56 53 50 47 44 42 40 37 34 32 31 30 29 26 23 21 22 23 23 22 21 22 22 24 25 25 24 23 22 21 22 26 37 52 66
74 73 69 60 54 51 50 48 44 40 36 32 30 28 26 26 25 21 18 16 15 14 15 16 17 19 20 22 23 22 22 22 21 22 24 29 36 46 58 77 86 90 87
65 57 50 45 41 38 36 34 32 30 28 27 25 23 21 20 19 18 18 17 19 21 21 20 18 17 16 15 16 19 22 26 36 49 61 81 97 99 99 97 92 93 99
39 39 36 35 31 28 28 25 25 25 26 26 25 23 23 23 21 20 20 19 17 16 14 14 15 17 18 20 29 41 50 61 68 57 73 86 94 91 96 90 84 85 92
29 30 31 34 39 37 34 34 33 32 30 28 25 23 21 19 18 17 17 17 19 24 23 19 24 29 33 40 46 55 59 59 61 65 66 79 80 87 90 90 90 88 85
46 44 43 44 44 42 39 36 34 31 28 27 25 24 26 27 33 37 42 41 38 36 40 44 43 47 48 48 54 57 65 64 70 73 76 80 80 82 80 79 76 73 70
34 32 31 31 30 31 31 32 36 36 39 44 52 54 52 53 58 60 66 71 69 67 66 66 68 69 69 69 69 71 72 71 73 72 72 71 70 68 67 65 64 60 51
50 54 60 65 71 72 73 78 81 81 82 83 82 80 79 77 76 82 90 91 90 89 88 87 85 84 81 79 79 78 80 82 81 79 77 76 75 67 54 34 22 18 16
33 32 31 31 30 30 30 30 29 29 28 28 28 28 28 30 32 41 53 63 70 75 81 89 90 88 88 89 86 88 90 88 83 69 45 29 20 18 17 15 15 14 13
28 28 27 26 26 26 25 25 24 23 23 23 23 24 26 27 29 33 38 43 48 56 64 70 77 80 78 74 61 43 36 32 22 19 19 18 17 16 15 15 16 18 19

GFSGL_500_rhum_099.txt.gz
RH
31 61 75 59 58 72 60 40 16 12 8 16 14 13 12 12 14 20 95 86 69 54 62 70 70 64 72 72 64 73 81 76 64 50 44 42 48 80 93 84 72 47 45
43 69 84 68 60 78 64 44 17 15 9 13 15 15 17 18 17 15 16 16 26 34 37 36 35 29 26 27 34 44 44 36 37 36 37 42 42 40 46 46 50 43 46
64 85 95 84 63 78 71 40 19 16 13 13 14 14 13 16 15 16 18 18 19 21 23 22 22 22 25 30 31 34 35 34 33 32 29 26 24 26 29 27 27 27 28
81 90 95 97 74 84 83 32 22 19 16 14 16 18 18 19 20 21 21 22 22 22 24 26 29 32 34 35 36 36 35 34 34 36 47 45 39 49 43 45 45 45 51
94 91 92 98 73 83 92 68 32 25 19 18 16 16 18 20 22 24 25 26 27 27 27 28 29 30 31 32 34 37 37 37 48 66 80 86 87 85 86 87 88 92 90
100 99 87 96 79 94 99 90 80 32 30 20 18 18 18 21 23 24 26 27 28 29 34 36 32 31 34 40 47 48 61 79 84 86 83 75 83 90 90 89 89 82 75
97 93 96 84 85 97 97 94 95 82 33 30 28 22 21 22 24 39 75 85 88 73 61 55 63 69 74 84 92 97 100 93 77 77 75 82 81 84 85 85 99 90 98
80 100 97 89 82 96 97 94 96 98 97 88 33 29 28 54 89 96 86 73 66 71 76 79 84 79 79 87 90 99 97 87 90 94 97 96 98 92 96 99 83 79 100
93 87 98 99 89 93 92 91 95 98 95 97 96 70 37 92 99 96 90 69 63 64 71 71 73 75 72 63 67 83 70 66 64 72 76 76 75 69 65 70 58 52 42
98 97 92 90 99 96 96 74 92 91 98 97 96 98 96 98 99 99 100 73 71 65 56 51 50 50 55 52 47 39 36 34 32 30 29 27 25 23 20 16 10 7 6
94 94 97 93 97 93 85 85 98 92 98 98 97 98 97 95 99 99 97 84 79 70 63 63 62 58 54 60 57 52 46 38 37 34 32 24 17 12 8 8 8 7 6
98 100 100 100 98 95 88 97 94 97 98 97 98 98 98 97 94 98 97 94 93 84 70 74 76 74 70 61 53 42 30 21 18 14 11 10 10 11 13 11 10 7 7
98 99 99 99 100 99 98 86 100 98 98 97 97 100 98 98 99 99 100 98 87 74 83 94 90 68 43 29 20 14 12 10 11 11 11 11 10 10 10 11 11 10 11
98 98 98 98 98 97 100 98 99 100 98 100 98 96 95 98 97 93 91 92 97 98 98 59 35 25 19 15 13 13 13 12 12 12 12 12 13 15 15 14 15 15 14
88 92 92 94 98 98 98 98 98 99 98 98 98 98 98 96 98 97 100 100 98 94 81 68 50 27 18 16 14 14 14 14 14 16 18 18 19 18 17 16 15 15 16
75 75 67 63 68 72 80 83 88 96 95 92 94 96 96 94 78 63 53 47 40 29 25 21 18 19 21 23 24 25 24 21 19 17 16 15 14 14 13 13 14 16 19
60 56 54 57 58 72 76 75 70 67 67 69 62 55 61 56 45 41 42 41 40 38 36 34 32 29 27 23 20 17 16 15 14 13 13 12 13 14 16 18 18 17 17
54 52 56 62 67 70 71 68 63 62 61 58 56 52 49 47 44 38 32 28 22 18 17 16 16 16 15 15 14 14 14 15 16 16 15 14 13 12 13 14 18 29 38
78 82 80 81 84 76 68 59 53 50 46 40 38 36 32 29 26 24 23 22 21 21 20 19 19 18 18 17 18 17 16 15 14 13 12 11 13 22 32 42 42 42 48
62 61 60 54 49 42 36 37 36 35 34 30 28 28 26 25 24 24 24 25 25 23 22 21 20 19 18 16 16 16 16 18 14 14 19 24 27 29 36 41 44 46 54
58 56 50 45 42 43 42 40 37 35 33 33 33 32 32 33 34 33 32 30 27 25 23 20 18 20 22 26 33 32 27 25 28 32 32 34 34 41 46 50 51 54 57
46 49 51 50 47 45 44 45 46 46 46 46 44 42 38 35 32 30 27 24 24 27 33 39 42 45 53 56 59 59 58 60 62 63 64 66 68 70 70 69 68 64 61
35 34 34 36 36 37 36 36 34 33 35 36 38 42 45 48 51 56 62 66 68 72 74 75 73 72 73 79 85 89 88 86 86 84 82 82 78 76 75 71 62 59 60
36 33 32 32 32 32 32 33 34 34 33 34 34 35 38 39 40 39 39 37 35 35 33 34 33 34 40 48 57 63 68 75 82 86 85 82 80 77 74 61 47 40 25
38 37 36 35 35 34 33 32 32 31 31 31 31 31 30 30 29 29 28 28 28 30 30 30 30 33 37 40 42 44 51 58 58 53 48 42 34 27 23 19 18 17 17
34 33 32 32 30 30 29 28 27 26 25 24 24 23 22 21 20 19 18 18 18 18 19 20 21 22 24 27 28 29 29 29 29 27 24 22 20 20 19 20 21 21 19

GFSGL_500_rhum_102.txt.gz
RH
11 11 12 18 18 20 49 53 66 51 22 16 11 12 10 11 13 28 55 62 59 65 83 95 98 94 82 78 81 78 76 81 78 84 74 46 42 37 38 39 68 96 84
11 11 16 15 23 24 60 56 70 61 26 18 12 12 12 12 11 12 18 91 96 98 100 85 63 60 64 44 42 45 56 56 60 53 36 28 26 32 34 36 38 43 56
12 11 14 14 33 47 67 58 72 73 36 21 15 10 11 14 16 15 15 17 47 41 46 44 87 45 31 23 21 21 23 24 25 28 31 29 28 26 25 27 30 32 29
12 12 15 19 41 69 98 69 72 79 54 26 18 13 11 12 16 17 15 17 18 20 20 20 20 24 22 23 22 21 19 21 24 28 35 38 41 49 49 58 57 58 64
12 24 28 23 28 62 86 83 70 88 61 26 23 15 13 16 17 19 22 21 20 20 18 19 20 22 23 25 26 27 30 32 33 37 41 41 57 78 83 84 78 85 88
22 30 55 67 81 86 94 84 68 98 94 57 31 22 19 15 16 18 20 22 23 24 24 26 26 24 26 27 30 32 32 33 36 39 46 66 83 88 94 95 84 76 75
36 40 70 85 94 99 100 84 82 100 98 98 77 36 24 20 19 18 19 19 21 22 23 24 24 26 32 35 36 39 39 50 70 81 82 78 77 81 93 98 98 97 96
50 45 83 100 99 100 100 91 88 99 97 98 91 85 46 33 26 24 22 22 24 24 28 58 80 82 62 59 68 86 89 87 84 83 71 60 62 71 88 80 87 88 83
68 62 87 100 99 100 99 85 90 84 96 98 95 95 100 96 82 59 39 37 38 52 89 89 85 84 87 87 90 85 92 90 73 78 68 56 48 49 46 40 38 35 32
83 96 82 83 82 96 100 98 89 85 92 98 97 95 98 100 98 98 97 60 66 100 100 92 80 98 98 99 99 98 99 70 72 96 59 44 42 41 40 37 34 30 28
100 92 80 84 79 73 96 97 100 91 80 97 85 98 92 100 99 99 98 97 77 95 94 98 95 75 78 75 71 76 72 52 49 52 61 59 52 44 34 26 18 13 11
97 99 99 73 100 98 94 98 98 97 92 98 97 97 100 97 98 97 98 98 98 98 96 98 92 89 88 87 75 67 62 64 67 70 60 43 35 25 19 18 15 14 13
98 100 98 99 100 99 99 99 99 98 97 97 98 98 99 97 96 97 98 98 98 98 97 100 97 100 100 96 76 62 65 87 88 52 27 20 15 18 20 18 19 18 14
71 88 97 100 100 97 99 99 99 99 98 99 99 98 90 99 97 96 96 95 96 98 98 99 100 99 99 71 69 89 99 60 27 28 24 21 22 17 14 16 17 18 19
73 70 74 87 94 98 98 99 98 98 99 100 99 98 98 99 99 99 99 98 99 100 99 98 99 98 97 97 98 98 98 94 82 41 20 18 21 24 23 22 20 19 18
89 80 75 74 80 89 94 93 93 93 96 96 96 98 98 100 100 99 99 98 99 98 98 99 99 96 81 59 40 31 23 25 27 29 29 27 25 21 18 14 13 12 11
85 83 78 70 63 62 63 62 60 58 57 59 75 93 91 79 78 91 95 94 97 98 96 87 79 72 62 47 39 32 29 23 20 17 17 15 14 13 12 11 11 12 12
65 67 62 57 57 52 61 74 68 68 74 71 69 66 63 61 56 56 58 59 57 56 56 53 46 40 33 25 21 20 20 19 17 16 15 14 13 12 12 13 13 14 14
81 82 77 71 76 70 67 67 85 93 87 81 74 67 61 58 56 52 49 50 49 41 36 32 27 24 22 21 20 19 18 17 16 15 16 15 15 15 15 16 17 16 15
67 80 80 80 83 90 96 97 99 97 86 62 46 38 34 34 39 38 34 31 31 30 27 25 24 24 24 24 23 22 22 21 21 19 17 18 18 25 30 33 39 42 42
44 41 41 45 52 58 66 70 68 66 64 58 54 48 42 39 38 35 32 32 32 29 29 30 30 31 30 29 28 25 22 20 22 28 37 48 50 52 58 65 65 67 70
44 49 50 48 44 41 44 45 46 44 43 44 41 37 37 38 38 40 40 39 38 36 34 31 29 27 26 29 34 43 53 57 58 55 51 45 42 52 57 65 66 67 70
33 34 38 43 43 42 39 36 34 33 33 33 34 34 34 34 35 35 35 36 37 38 39 40 42 43 42 39 35 32 29 26 25 25 25 26 28 32 38 49 52 63 65
58 55 50 47 46 45 45 43 42 38 36 34 32 31 31 31 31 30 30 30 30 29 29 29 29 28 28 28 27 27 26 26 26 27 27 27 32 43 51 46 40 34 30
47 46 45 44 43 42 41 41 41 40 39 38 38 36 36 34 33 32 30 29 28 27 26 25 24 22 21 20 20 19 18 17 18 18 20 22 26 28 28 28 28 24 20
40 38 37 36 36 36 35 35 35 34 33 32 31 29 28 27 26 25 23 22 20 19 18 16 15 14 12 11 11 11 11 11 12 13 15 16 18 18 17 17 18 19 19

GFSGL_500_rhum_105.txt.gz
RH
28 43 44 42 39 50 22 30 38 37 46 48 52 21 13 13 13 12 15 82 96 97 96 97 97 97 97 97 94 89 77 66 75 84 82 84 85 78 59 42 32 36 37
24 44 48 33 37 32 16 34 43 50 53 58 58 28 16 14 19 13 12 60 92 93 94 96 96 96 96 98 92 73 60 77 92 89 68 63 78 59 46 34 38 42 39
30 34 33 19 18 21 16 28 56 63 64 63 64 41 19 16 18 19 14 14 55 90 96 94 95 88 70 67 62 70 69 56 45 42 69 56 35 29 32 29 24 23 28
34 28 19 16 20 16 38 39 68 83 65 67 67 55 26 19 16 16 15 15 15 20 69 97 82 86 62 97 86 43 28 23 22 22 22 24 26 24 20 25 30 37 53
16 14 14 20 16 32 42 46 63 82 60 67 73 69 50 26 20 17 19 18 17 17 19 24 41 31 51 60 32 23 19 18 17 19 22 27 29 28 32 36 51 74 92
29 29 20 20 19 26 42 65 64 77 84 81 85 94 70 32 28 21 18 19 18 17 17 18 20 20 20 21 20 18 17 21 25 28 31 35 36 35 41 46 62 82 92
41 31 32 19 21 37 55 77 91 99 100 90 79 85 93 71 43 27 20 18 20 20 23 24 26 25 25 26 27 27 27 28 30 31 33 35 39 47 60 79 97 95 94
97 80 40 35 30 37 70 92 96 97 100 99 86 87 96 98 89 53 36 23 21 19 19 20 22 24 25 25 27 27 27 31 35 40 44 56 77 90 91 93 91 98 88
100 92 66 51 37 41 72 96 100 99 98 100 88 81 90 100 96 87 62 37 32 29 26 25 24 25 28 28 35 78 86 79 75 79 86 90 88 89 99 95 100 88 47
92 99 98 77 99 56 75 84 99 100 97 92 87 81 88 100 99 96 91 82 83 74 63 64 50 52 73 82 96 92 79 76 93 92 89 92 97 99 100 100 99 82 48
94 98 99 98 97 99 96 93 84 100 97 92 95 99 99 100 98 99 97 92 85 93 100 100 98 80 77 100 100 95 99 98 99 99 98 100 99 88 70 54 53 56 58
67 96 97 99 99 76 87 100 99 94 85 79 96 90 73 98 100 95 98 98 99 97 97 99 98 100 82 99 99 99 99 97 95 97 98 100 98 84 54 57 59 52 37
56 43 85 98 99 99 100 100 99 99 100 94 97 93 95 85 100 99 97 98 99 95 92 97 98 99 99 98 98 98 98 99 92 93 95 90 87 79 78 92 83 62 47
54 68 71 55 85 97 100 98 98 98 99 99 99 100 100 99 99 99 99 99 98 98 98 99 98 98 99 98 98 98 98 97 97 98 98 97 97 97 98 98 95 90 63
46 73 80 74 66 56 68 89 94 100 100 100 100 99 98 98 99 100 99 99 99 99 100 100 100 100 100 100 98 98 99 99 100 99 99 97 97 79 59 48 34 30 30
78 86 88 93 92 84 76 66 62 68 75 91 97 99 98 99 100 99 100 100 100 100 99 99 98 98 98 99 100 99 99 99 98 99 99 91 65 36 35 33 31 30 26
29 48 72 77 79 76 72 72 68 64 64 68 74 86 94 97 97 98 99 100 100 98 97 97 98 99 98 99 98 98 96 99 97 94 83 62 46 34 29 25 23 22 22
39 39 42 55 70 77 82 74 72 70 65 70 77 74 73 77 79 82 87 86 84 84 82 86 81 82 84 86 88 88 88 85 79 60 39 29 23 22 22 22 20 18 16
44 41 45 52 60 68 74 78 90 94 96 100 100 100 98 94 89 86 80 74 72 70 68 65 61 58 57 56 52 44 38 35 31 27 25 24 23 23 21 20 18 17 15
30 26 28 31 34 36 40 47 60 70 82 94 99 100 100 100 100 100 88 75 61 53 49 48 45 40 35 32 32 31 30 28 26 24 23 23 23 22 21 19 19 18 20
31 38 44 46 39 34 35 36 43 45 39 38 42 49 55 63 70 71 68 63 56 52 48 42 38 36 34 32 28 26 25 24 25 25 26 26 23 22 22 25 34 38 36
41 44 44 39 35 36 36 32 30 33 34 34 34 34 34 35 35 35 34 33 33 31 30 27 25 25 26 26 27 27 28 28 27 27 27 29 31 30 27 24 24 24 24
57 57 57 57 56 53 48 43 39 36 41 43 44 43 47 47 45 42 38 35 32 31 30 30 29 29 30 30 30 30 29 28 28 27 27 27 26 25 24 23 22 22 21
46 47 48 48 48 48 48 48 48 48 47 46 44 42 40 40 40 39 40 39 37 36 35 34 33 33 33 32 32 31 30 29 28 27 26 24 22 21 19 18 16 15 14
48 48 46 46 46 45 44 44 44 44 44 44 45 45 44 43 43 42 41 40 39 38 37 36 35 33 31 29 28 27 26 24 22 21 19 17 15 12 11 10 9 9 8
24 28 32 36 38 39 39 38 37 36 35 33 32 33 32 31 32 31 31 31 30 29 28 27 26 24 23 20 18 16 15 13 11 10 9 8 8 8 9 10 11 13 14

GFSGL_500_rhum_108.txt.gz
RH
86 78 74 79 72 65 76 74 51 57 44 37 51 44 42 33 39 21 7 10 12 52 98 97 97 96 96 97 96 96 97 97 97 96 94 95 97 98 100 98 88 84 68
86 88 94 89 72 71 77 77 94 96 77 45 48 52 51 53 44 30 10 9 10 44 98 97 97 97 97 97 97 98 98 97 94 97 100 99 96 95 90 91 83 71 49
73 63 86 94 73 64 71 84 95 97 73 39 49 57 64 64 52 37 14 9 14 15 89 95 93 97 97 97 98 97 96 97 97 97 100 99 99 92 88 80 80 52 32
27 56 76 47 27 40 54 75 88 87 59 44 57 58 72 70 62 45 21 11 13 19 20 81 92 96 98 97 97 96 97 90 90 89 80 81 73 58 64 89 64 40 34
22 19 20 23 30 33 46 51 63 47 38 44 44 57 81 85 75 58 36 15 12 15 20 27 63 96 97 98 97 78 72 97 69 40 34 38 36 30 35 35 35 35 42
21 21 25 30 24 24 26 32 39 50 59 62 57 55 84 99 91 75 53 24 14 14 17 19 18 31 74 97 96 56 100 99 45 26 25 27 28 29 32 33 38 42 41
25 26 31 42 61 24 28 94 66 97 97 86 72 71 89 100 95 88 73 37 20 17 18 20 19 19 22 33 72 72 41 32 28 28 27 31 34 36 39 43 42 41 43
45 43 41 43 55 33 23 41 92 78 48 66 76 95 97 99 95 92 89 74 44 21 20 18 22 23 23 25 26 28 26 27 28 31 33 34 36 37 36 39 39 40 55
78 44 72 96 88 68 43 33 78 44 98 69 68 85 100 98 99 91 93 90 80 69 43 24 22 21 22 23 24 26 26 26 26 28 29 30 33 36 41 45 61 94 99
82 80 75 71 95 91 98 68 93 70 100 52 99 68 82 100 100 96 89 89 94 93 82 78 42 32 36 32 28 27 28 27 30 32 39 71 94 96 95 98 98 100 98
27 46 76 91 100 100 96 80 94 99 100 95 97 98 87 64 84 95 97 95 94 94 95 96 89 80 87 89 82 87 80 63 44 50 87 97 98 96 99 99 99 98 99
13 12 14 69 92 97 98 99 90 99 98 98 98 99 99 85 81 84 99 99 96 99 98 100 99 94 97 98 100 100 97 98 93 80 100 100 96 99 100 100 99 98 98
17 15 30 37 34 53 99 99 98 99 99 100 100 99 99 98 73 76 68 92 90 97 95 98 98 99 97 98 98 99 98 98 100 93 100 98 99 99 100 100 100 100 100
14 15 20 53 66 74 52 77 96 99 100 98 100 99 99 100 99 99 100 90 100 100 100 97 99 100 97 98 98 99 98 98 100 90 94 100 99 98 97 99 98 95 98
10 10 16 29 61 79 75 77 76 78 94 97 96 98 98 99 98 98 99 99 99 99 100 100 100 100 100 100 100 99 99 99 99 100 100 100 98 98 98 98 100 100 100
14 12 10 9 13 46 77 90 84 76 77 72 67 73 83 94 95 100 100 100 100 100 99 100 100 98 98 100 99 99 99 99 99 99 98 98 98 99 99 100 100 100 100
30 24 18 15 14 13 14 28 48 63 67 64 68 70 64 59 60 60 67 85 99 100 100 100 100 100 100 100 100 100 100 100 100 100 100 100 100 99 98 98 98 99 91
39 35 32 28 27 28 29 32 40 47 63 74 75 74 74 79 82 80 77 75 75 82 90 93 95 96 98 99 97 99 98 97 99 99 98 100 99 98 95 85 73 60 46
43 42 39 35 33 32 33 32 33 34 40 51 66 73 79 85 98 100 100 100 99 97 96 95 96 95 93 94 97 98 96 98 98 86 68 60 55 49 41 37 34 32 29
32 33 32 32 33 32 28 28 31 32 32 30 31 34 39 49 62 75 86 94 96 98 99 100 100 97 87 78 70 64 59 56 52 48 44 40 36 34 32 30 28 25 22
39 38 35 35 36 36 32 29 27 24 26 32 35 37 36 34 37 40 40 39 41 42 45 51 53 61 62 52 48 44 42 40 37 33 31 28 24 22 21 20 22 20 21
29 34 38 42 45 48 51 55 54 48 41 37 38 34 30 29 32 32 29 30 30 30 30 30 30 29 28 27 27 27 26 25 24 23 23 22 23 24 25 26 27 28 28
22 25 28 34 40 44 44 46 49 50 52 53 53 53 52 48 44 42 41 40 39 40 38 36 35 36 35 36 37 35 33 32 32 32 31 31 32 32 32 32 32 31 30
21 22 23 25 27 33 41 49 50 50 52 53 52 50 49 49 50 50 49 48 47 46 44 43 42 42 41 40 40 39 38 38 37 37 36 36 35 34 33 32 29 26 24
18 18 19 20 20 20 22 28 35 42 46 49 50 50 49 48 47 47 46 46 46 46 45 44 43 42 41 40 39 38 37 36 34 33 31 29 28 26 22 19 17 13 10
9 10 10 10 11 12 13 15 18 22 24 26 27 28 30 31 34 37 38 37 35 34 34 32 32 31 30 28 27 25 24 22 20 17 15 14 12 10 9 8 8 7 8

GFSGL_500_rhum_111.txt.gz
RH
84 79 76 71 70 92 90 76 83 92 87 89 94 65 37 45 41 35 25 25 27 22 6 6 40 93 95 92 96 96 96 96 97 96 97 97 97 97 96 97 96 98 98
90 82 77 73 77 69 65 80 86 96 97 95 96 70 43 48 47 44 36 22 30 23 9 6 51 92 97 97 96 97 97 96 98 96 97 98 97 97 96 97 97 98 97
71 68 66 70 80 81 83 89 94 96 95 95 97 96 94 68 48 49 41 29 34 27 16 5 54 90 96 96 97 98 97 98 98 97 97 97 97 97 96 96 97 97 94
54 60 72 81 85 89 89 83 90 96 95 96 96 96 97 93 66 47 52 44 38 31 24 9 7 38 82 94 97 96 97 97 97 96 97 97 97 98 97 97 96 99 90
29 28 43 45 55 78 91 90 96 76 50 66 87 89 100 87 59 64 68 56 48 39 28 14 6 11 30 94 97 98 97 97 97 97 96 91 88 89 89 100 100 100 91
32 33 30 28 28 25 26 34 36 32 44 61 65 85 98 92 65 72 80 68 58 54 34 16 10 10 14 38 77 97 98 98 98 92 98 97 98 63 51 65 74 71 76
20 18 21 25 24 26 30 100 45 41 55 96 96 92 59 59 87 87 88 79 68 68 51 28 16 12 14 18 37 50 59 96 98 90 100 100 97 45 41 27 28 33 34
48 34 29 23 34 27 33 40 77 25 29 74 92 72 63 93 96 91 93 89 75 74 77 51 26 17 15 18 18 22 54 62 64 78 82 61 49 44 43 34 36 39 40
73 69 56 48 52 45 35 99 95 53 99 98 98 98 100 88 99 96 94 98 84 73 77 81 77 53 27 22 19 23 43 27 33 43 38 28 27 30 31 34 37 40 42
54 62 68 79 55 48 59 72 78 71 45 75 100 100 78 97 99 97 97 100 94 99 80 80 93 96 100 100 67 29 22 22 22 26 29 75 43 32 33 35 38 41 43
23 17 17 39 59 68 63 63 75 69 60 89 81 78 100 97 99 97 83 76 98 95 93 95 89 98 98 100 100 100 99 70 55 30 27 32 46 34 41 47 62 91 100
19 17 16 13 12 36 71 71 84 94 93 100 95 90 100 100 98 98 98 99 67 81 100 98 96 97 96 90 94 98 97 87 87 83 87 97 94 95 96 97 93 100 100
22 22 21 18 17 15 14 22 41 85 100 97 98 99 98 93 99 100 98 99 99 97 97 99 67 88 72 76 98 87 98 100 100 95 95 98 98 99 98 99 99 100 100
16 13 13 14 13 13 12 15 20 26 36 60 98 99 100 98 98 98 98 98 98 99 98 100 75 92 76 76 99 99 100 100 98 98 97 99 98 99 96 100 97 100 96
13 11 12 11 11 10 10 11 14 29 53 63 53 82 99 99 100 93 91 96 99 99 99 99 95 99 74 65 84 98 99 99 99 99 97 98 97 99 100 99 100 100 98
18 17 15 15 14 12 11 10 9 8 14 38 54 70 78 80 92 96 99 99 97 99 95 89 93 94 94 82 77 88 98 99 99 100 100 100 100 100 100 100 99 98 98
30 29 27 23 22 21 19 18 15 14 13 12 10 13 23 38 66 70 72 72 79 98 99 96 99 98 98 98 100 100 100 100 100 100 100 100 100 100 100 100 100 100 100
53 47 41 38 35 32 28 28 27 27 26 24 24 25 22 21 24 37 62 67 66 71 72 70 91 93 90 95 100 100 100 100 100 100 100 100 100 100 100 100 100 100 98
24 22 24 28 33 34 31 28 30 34 32 31 30 29 29 29 29 35 45 59 69 74 82 88 88 97 98 96 93 92 92 96 98 97 98 98 97 96 97 99 99 100 97
29 28 27 26 27 28 28 27 27 28 29 31 33 31 27 27 30 31 30 30 37 45 56 69 83 90 96 98 100 100 100 100 100 96 90 84 82 79 76 70 58 47 40
18 16 16 17 16 15 16 17 20 28 35 34 33 32 29 28 26 25 25 29 32 33 34 37 40 43 46 48 51 50 50 54 55 56 54 46 39 35 32 29 27 25 24
29 28 26 24 22 21 20 18 16 16 18 22 31 40 44 45 44 40 37 36 37 36 34 32 30 27 25 27 30 31 30 30 30 28 29 30 30 30 29 29 29 29 28
29 27 25 23 22 22 21 20 19 19 19 21 24 30 40 45 46 50 54 55 55 55 53 52 49 46 43 39 38 39 38 38 38 38 36 35 36 38 38 38 37 36 36
25 23 21 20 20 19 18 17 17 18 19 21 22 25 31 42 52 52 52 52 53 53 52 52 53 53 53 52 51 49 48 46 45 44 43 42 42 42 42 41 40 38 36
21 18 15 12 10 9 9 9 9 9 10 12 16 19 21 25 32 40 47 51 52 52 53 54 53 53 52 50 50 48 47 46 44 42 41 40 38 37 35 33 30 27 25
10 10 11 12 14 15 16 16 16 15 13 12 13 15 18 19 21 24 26 28 30 34 38 40 40 40 40 39 38 37 34 33 32 31 28 25 23 21 19 17 15 13 12

GFSGL_500_rhum_114.txt.gz
RH
83 77 72 73 88 97 96 97 94 75 66 62 74 73 74 79 79 78 66 33 30 25 25 34 27 17 7 10 58 90 90 93 98 97 97 96 97 96 96 88 97 99 98
67 55 66 85 85 82 92 95 99 94 69 71 72 74 72 82 96 95 82 43 39 34 31 31 30 19 9 18 62 87 97 95 97 97 97 98 97 96 96 92 95 96 90
47 58 74 84 89 85 81 80 80 92 93 91 91 85 82 88 94 97 93 59 47 43 33 30 35 23 11 11 69 93 96 94 96 98 97 97 97 96 96 98 98 91 96
69 89 99 83 78 74 66 65 70 73 83 72 77 85 93 94 95 96 96 93 61 47 38 38 43 28 15 9 42 85 66 96 96 98 98 97 97 96 97 98 97 97 97
76 79 85 77 59 55 65 84 89 84 87 87 88 93 98 95 95 99 98 98 83 68 50 44 50 39 18 10 10 60 80 92 97 97 97 97 94 96 98 98 97 93 95
31 35 41 46 44 27 33 51 77 89 94 95 90 86 82 83 84 98 96 100 87 66 52 47 44 52 30 12 13 15 41 83 96 96 97 98 97 98 93 98 98 95 82
44 34 27 26 31 32 34 32 27 28 30 33 40 45 40 56 73 76 97 99 84 59 68 62 54 62 50 21 15 13 18 38 97 98 97 97 98 98 99 100 99 95 55
73 71 59 39 28 24 24 28 27 26 26 83 79 42 75 98 96 97 98 96 81 65 86 83 72 68 69 35 19 18 17 24 46 98 84 71 62 77 70 89 97 98 84
62 66 71 80 73 46 36 37 37 41 36 90 99 53 74 99 61 96 97 79 83 83 76 74 66 68 77 84 39 22 22 94 46 24 94 99 96 98 93 95 91 40 33
42 37 32 43 54 75 86 67 53 56 44 99 99 86 84 98 96 97 98 100 90 96 98 92 81 73 71 82 87 86 43 36 49 92 27 80 98 35 37 80 58 61 69
22 38 34 20 16 21 42 61 75 69 64 74 91 76 86 98 97 99 98 98 99 95 82 91 98 96 97 82 78 72 87 90 89 96 89 35 55 46 28 30 30 31 32
28 26 25 22 20 17 15 14 30 55 59 57 58 61 70 83 98 91 96 94 98 99 90 72 83 90 99 96 96 83 90 97 94 89 91 95 94 100 92 98 100 78 74
35 32 30 28 28 24 20 17 16 14 16 32 58 68 75 86 90 87 96 89 95 98 99 97 97 77 79 99 99 95 99 91 91 92 86 93 83 89 95 100 100 99 99
31 30 27 26 22 18 13 13 14 13 12 12 11 22 42 62 80 96 91 94 99 97 98 98 99 99 95 98 100 100 91 99 98 100 92 91 96 97 98 100 100 100 99
22 18 17 18 19 16 13 13 14 13 11 10 9 9 11 19 32 34 63 90 96 99 99 98 99 99 98 99 100 98 99 100 91 100 96 95 100 100 98 98 99 100 100
31 27 24 20 18 16 14 13 14 14 13 12 11 10 9 8 10 25 48 59 64 89 97 98 99 100 100 99 100 99 99 100 100 100 92 100 96 100 100 100 99 100 100
39 36 33 31 27 26 26 24 21 18 18 17 16 14 14 12 10 10 10 11 17 38 68 78 81 82 94 100 100 99 100 99 99 100 100 100 100 100 100 100 100 100 100
11 10 11 11 12 14 15 18 18 19 18 19 22 22 20 20 18 15 14 17 18 20 22 24 32 57 70 68 82 96 100 100 100 100 100 100 98 100 100 100 100 100 100
21 20 20 21 21 20 19 18 18 18 18 18 19 21 20 17 17 24 27 27 23 22 24 27 31 34 39 52 62 74 83 93 98 100 98 100 100 100 100 100 100 100 100
22 22 20 19 17 16 16 15 14 14 14 14 14 14 15 20 26 27 28 31 34 32 29 28 28 28 31 38 48 58 72 83 91 92 95 96 96 97 97 96 96 95 93
41 43 43 42 38 36 34 31 28 24 23 24 23 22 19 17 15 14 16 27 29 31 33 31 30 31 33 33 35 40 46 50 53 59 64 67 66 66 65 65 65 68 72
47 46 45 44 42 39 37 35 33 32 30 28 26 24 23 21 20 18 17 15 15 21 34 39 42 41 39 37 36 35 35 35 36 38 38 35 34 34 34 33 33 32 31
42 41 38 36 35 34 33 31 30 28 26 24 23 22 21 20 21 21 20 19 18 19 22 30 43 51 57 59 58 54 51 47 44 42 42 42 41 42 43 43 42 41 40
36 35 33 31 28 25 23 22 20 19 18 17 16 15 14 14 15 16 17 19 20 22 27 33 42 50 53 54 56 57 58 59 59 58 56 54 52 52 50 50 48 47 46
32 29 26 21 17 13 11 10 10 10 10 10 11 10 10 9 10 10 12 15 20 22 25 29 38 48 56 58 59 60 60 58 58 57 55 55 54 53 52 50 49 47 45
20 16 14 13 13 14 16 17 19 21 21 21 20 20 19 18 16 15 13 13 14 18 22 25 27 29 34 40 45 47 47 49 48 48 46 43 42 41 39 38 36 32 28

GFSGL_500_rhum_117.txt.gz
RH
95 97 96 86 66 86 81 88 96 98 97 97 97 92 98 98 98 96 92 86 67 67 68 55 29 24 17 20 25 13 10 40 65 96 97 95 94 86 97 96 95 92 93
27 28 23 29 45 56 60 93 83 89 95 96 97 97 96 97 96 91 82 79 89 95 95 81 40 26 24 19 25 18 9 52 70 92 96 100 97 98 97 97 97 96 88
28 37 54 46 67 90 90 98 100 99 96 90 90 89 89 86 86 79 81 87 86 92 100 96 59 29 31 24 25 24 10 29 95 96 97 95 97 97 97 98 95 88 85
62 81 98 95 86 97 98 83 92 98 96 94 92 95 93 92 91 87 84 77 84 90 96 98 76 43 37 30 36 32 15 15 68 86 76 89 97 96 97 96 94 96 92
85 71 58 52 59 55 59 76 96 82 79 73 66 71 72 73 77 79 72 77 89 95 97 96 97 66 44 34 34 41 23 13 44 66 72 92 92 97 98 96 97 95 96
91 95 84 78 81 83 70 73 79 74 58 60 69 84 90 83 84 80 81 91 98 96 94 98 99 77 60 43 37 43 36 15 33 70 79 85 98 97 97 97 98 96 91
67 66 50 39 41 49 56 59 59 44 32 41 67 92 99 95 98 98 95 92 87 97 97 99 97 92 80 52 46 44 47 28 15 18 20 87 96 97 97 97 97 97 98
69 69 71 62 50 36 27 27 31 29 26 31 32 36 44 50 56 65 71 71 83 91 98 94 95 96 75 77 61 58 54 49 28 18 18 49 92 96 97 98 98 96 92
49 49 51 55 59 70 71 56 40 32 28 27 26 29 28 28 44 44 48 65 86 97 99 99 98 96 90 99 76 69 66 66 49 23 20 19 78 97 99 99 96 99 98
37 46 46 43 33 26 27 37 74 85 66 52 40 35 34 35 98 99 98 100 98 94 97 97 96 96 96 87 91 90 83 72 73 68 23 74 97 43 44 99 97 98 98
25 24 23 22 22 22 21 17 15 20 49 77 71 63 60 47 82 93 75 67 93 87 96 98 98 98 92 96 97 98 95 81 75 91 83 60 43 30 79 51 28 92 95
39 37 36 34 33 31 29 28 26 21 18 17 32 66 73 71 69 82 85 99 98 100 98 99 98 96 98 98 100 96 86 81 88 83 84 78 97 87 73 85 76 59 56
38 37 37 37 35 33 30 28 26 23 20 18 16 15 18 42 60 59 67 77 84 92 96 96 96 99 97 98 97 100 99 97 99 99 99 96 96 97 97 95 97 96 97
24 28 32 31 30 28 25 27 28 24 20 15 15 16 14 13 12 21 39 51 58 66 83 77 74 83 96 98 100 98 99 100 99 100 99 96 99 98 100 98 98 100 100
28 30 32 32 32 30 27 24 20 18 18 18 16 17 17 15 12 10 9 9 14 32 49 76 83 83 89 90 96 98 98 98 100 100 100 97 100 99 100 100 99 99 100
31 32 32 32 32 32 32 30 28 25 22 19 17 14 14 15 16 15 14 12 10 8 8 17 33 50 72 96 100 100 100 100 100 100 99 100 100 100 100 100 100 100 100
24 22 20 18 18 16 15 16 18 20 22 25 25 25 23 19 17 16 16 17 16 14 13 12 11 10 11 25 41 74 93 99 100 99 100 99 100 99 100 100 100 100 100
15 17 20 21 21 20 20 20 19 17 14 13 12 12 11 12 13 14 14 15 17 18 18 17 16 15 14 13 15 23 25 55 84 95 100 100 100 100 100 100 100 100 100
22 22 22 21 21 22 23 23 22 21 20 18 17 16 15 15 16 18 17 17 18 17 15 13 13 17 19 20 20 19 18 20 26 53 71 82 93 98 100 100 100 100 100
42 43 43 42 42 42 41 41 41 41 39 37 34 31 26 22 22 20 17 16 17 14 14 16 21 21 19 24 30 30 28 27 27 31 34 46 66 73 82 91 93 93 97
38 37 36 34 32 31 30 30 29 29 29 29 30 30 31 32 34 36 36 32 28 27 25 22 18 15 16 24 27 30 32 30 30 32 33 37 42 47 58 70 80 85 84
35 36 36 34 32 30 29 28 27 27 27 28 29 30 30 30 32 33 32 32 32 31 30 28 26 23 20 18 15 16 26 33 36 35 39 42 44 45 47 50 53 55 55
35 32 30 28 27 26 25 24 24 24 24 24 25 26 26 25 25 26 27 27 27 26 25 24 23 22 21 21 20 18 17 18 30 46 52 50 48 47 47 46 45 44 44
31 29 28 26 25 25 24 22 20 16 14 13 12 12 13 12 13 13 14 15 17 20 21 21 21 20 20 20 21 21 21 23 27 35 44 54 64 67 67 66 63 61 59
26 24 22 18 14 14 14 14 14 14 13 13 13 12 12 13 12 12 11 11 10 10 11 11 12 13 14 16 19 22 24 26 34 46 50 55 59 60 60 59 58 58 57
12 13 14 16 17 18 20 21 21 22 20 17 18 21 22 23 21 21 21 20 19 17 16 15 13 12 12 12 15 20 25 28 30 36 44 50 54 56 56 58 59 58 56

GFSGL_500_rhum_120.txt.gz
RH
96 96 96 92 86 95 88 94 96 92 94 95 94 100 97 90 89 98 97 97 97 96 87 81 46 52 61 63 49 26 18 14 13 12 15 57 88 96 96 97 91 94 95
94 99 99 98 86 79 74 81 83 83 90 93 98 97 95 95 96 96 96 97 95 96 96 96 89 85 89 94 93 56 23 18 14 15 9 46 87 92 92 95 98 92 96
99 97 99 99 97 96 100 91 97 92 63 77 72 90 95 97 96 97 97 97 97 96 95 90 93 91 93 94 97 96 42 24 15 16 11 27 80 99 99 96 97 92 95
33 36 33 30 32 40 32 28 23 52 74 70 78 90 79 89 83 73 74 78 84 88 88 76 84 86 94 98 91 98 56 27 18 18 21 11 73 92 98 98 97 96 97
17 22 28 35 34 37 60 62 41 50 87 99 97 85 76 78 72 74 75 79 80 83 85 83 84 78 93 88 88 100 84 41 20 18 23 14 74 92 89 94 99 97 97
46 52 100 76 47 46 63 93 97 84 72 81 72 64 83 79 69 68 67 71 76 72 75 74 80 86 97 97 97 100 92 59 32 30 31 24 17 74 87 85 98 97 97
88 71 91 76 90 91 80 58 56 49 65 76 67 57 81 76 60 58 60 79 91 91 86 84 91 78 97 96 98 98 97 86 45 37 36 36 18 29 42 84 94 95 96
99 97 81 81 85 82 69 64 65 73 76 78 77 74 69 60 38 44 67 90 94 96 98 93 97 96 94 98 96 94 98 96 74 49 43 50 36 18 15 94 99 95 96
65 63 60 50 46 51 60 79 82 68 44 34 31 34 42 35 29 31 34 58 74 77 86 94 91 83 94 100 97 91 98 95 88 62 52 52 60 37 18 34 98 98 98
20 23 30 36 30 29 36 34 26 23 49 80 76 50 36 32 29 29 35 61 76 71 82 53 77 99 97 98 98 100 97 99 96 91 68 75 64 70 46 21 69 100 99
31 29 27 27 29 31 31 29 26 24 19 17 19 37 75 78 69 86 73 70 70 80 98 98 99 98 98 99 99 98 100 98 98 96 83 81 89 81 86 70 62 76 75
43 42 40 39 38 36 35 34 33 31 29 28 25 20 17 17 35 73 85 86 89 77 100 98 92 84 89 88 99 98 99 98 96 97 94 94 98 99 88 92 96 76 46
18 18 17 16 21 24 26 28 29 29 28 28 28 23 20 18 17 16 19 45 73 83 80 84 100 99 100 97 98 99 98 99 99 98 98 100 98 99 90 95 93 94 100
13 14 13 14 13 11 11 14 16 19 21 23 25 26 26 24 17 16 18 16 13 13 31 51 66 87 96 98 99 99 98 98 99 99 99 99 100 100 99 98 98 98 98
7 8 10 12 17 19 22 24 24 24 23 23 24 25 26 26 24 22 19 18 19 17 13 11 12 28 51 66 77 91 98 100 92 98 100 99 98 99 98 98 99 99 99
15 17 18 18 18 20 21 24 24 26 27 28 30 31 32 30 29 27 24 20 16 16 18 18 15 12 10 9 24 54 68 85 95 96 94 98 98 98 98 98 99 99 99
16 14 14 13 13 13 13 15 15 14 15 15 14 14 15 16 19 21 25 29 28 25 21 18 17 17 18 18 14 11 9 14 38 58 79 98 100 100 100 99 99 99 99
21 21 21 22 22 23 24 25 25 24 22 21 20 20 20 19 18 16 15 14 13 12 15 18 19 20 20 19 18 17 17 15 12 9 9 17 43 60 80 92 98 100 99
34 33 32 31 30 30 29 28 28 28 28 29 30 31 31 30 30 30 30 27 22 17 15 14 14 13 13 13 13 13 14 17 18 17 15 13 11 12 15 30 51 75 95
30 29 28 28 28 27 27 27 27 27 26 26 25 24 23 23 23 24 25 26 27 30 32 31 26 21 18 16 15 14 14 16 16 14 17 22 22 22 20 18 19 26 39
34 34 32 30 28 28 27 26 26 26 26 25 25 25 24 24 24 24 23 23 23 23 25 26 28 30 33 33 31 24 22 19 18 16 20 23 27 32 32 31 31 31 32
36 34 34 33 32 30 28 26 25 24 23 22 20 20 20 20 20 20 20 20 21 22 24 26 28 28 30 32 34 36 36 33 30 28 23 18 16 20 26 31 33 33 35
36 34 31 28 25 22 20 18 16 15 14 13 13 12 12 12 13 14 14 15 15 16 17 18 20 24 26 28 28 29 30 30 29 28 27 25 22 21 18 16 20 30 37
30 24 19 15 12 10 9 9 9 8 8 9 9 8 9 10 10 10 10 10 10 10 10 10 12 14 16 18 20 23 25 27 27 26 25 24 23 22 21 21 20 20 24
15 11 10 10 11 12 14 15 16 17 18 18 18 18 19 18 18 17 15 15 15 15 14 14 13 12 11 11 12 14 16 18 19 19 20 21 22 22 23 24 26 31 35
11 12 14 17 19 21 23 26 27 27 27 27 25 24 24 25 27 26 21 20 22 23 23 22 21 20 19 18 16 15 14 13 12 12 12 16 20 23 25 27 30 35 44

GFSGL_500_rhum_123.txt.gz
RH
98 100 99 93 99 84 91 92 98 97 97 95 97 100 99 89 85 77 82 89 83 89 96 97 94 96 92 77 64 57 55 61 62 67 31 13 17 22 13 40 67 93 89
99 83 87 84 96 97 96 95 94 96 98 100 99 95 98 86 72 82 83 79 78 85 93 97 97 98 96 97 95 86 80 78 80 87 96 80 16 19 13 31 64 89 97
78 76 79 95 98 98 99 97 97 97 97 89 95 93 77 69 69 86 96 96 97 96 97 97 97 96 94 98 96 87 86 82 77 79 92 100 42 15 16 18 59 89 93
97 99 84 79 97 99 97 96 100 91 100 95 94 73 65 69 64 73 72 74 82 79 91 95 94 95 92 91 91 91 96 89 90 72 71 95 43 20 15 12 39 78 93
65 92 100 100 74 87 92 99 94 67 65 54 63 60 38 27 31 45 56 62 63 73 81 71 72 72 78 77 78 78 92 99 94 82 72 95 61 27 20 17 20 71 63
17 24 56 88 93 77 26 18 22 27 26 26 21 19 17 20 52 62 65 61 52 58 71 65 58 69 77 87 88 84 86 90 95 97 93 94 88 46 26 25 17 54 59
17 13 15 18 29 22 37 39 35 37 37 40 56 81 76 33 62 77 90 80 64 56 71 70 60 63 76 84 81 80 82 93 85 97 92 98 96 71 32 29 25 17 32
31 26 84 84 62 67 78 68 64 77 81 58 47 49 66 66 68 60 60 62 54 48 59 67 50 54 72 77 91 93 95 92 96 79 92 96 96 98 48 37 39 25 20
100 100 98 98 87 81 79 82 87 90 84 72 64 64 66 70 69 73 72 68 58 57 63 54 45 46 80 89 90 96 96 92 90 99 99 91 96 98 96 58 47 48 29
40 51 64 62 52 45 43 39 35 36 41 38 36 74 84 72 56 45 41 42 51 53 48 29 29 36 50 58 61 91 62 73 86 95 95 97 96 97 97 82 56 52 52
35 33 31 29 28 27 29 30 31 30 29 27 25 23 19 20 25 46 74 73 62 54 46 44 42 92 94 93 81 89 92 99 97 98 98 98 98 97 99 97 95 68 60
32 31 30 30 31 31 31 31 31 31 32 32 32 31 30 29 27 24 20 19 22 56 87 100 92 96 90 73 84 96 99 98 98 98 99 99 98 98 99 98 98 98 84
9 8 8 7 7 8 9 10 11 11 12 14 20 24 26 28 27 27 26 22 18 16 16 18 48 80 95 84 97 99 97 99 98 98 96 98 99 98 98 98 99 95 98
7 6 6 6 5 5 5 5 5 6 6 7 10 11 12 14 16 20 24 26 26 24 16 16 17 16 14 24 63 80 96 99 99 99 99 98 98 98 98 99 98 98 99
7 7 7 6 6 6 6 5 6 6 6 7 7 8 11 14 15 18 19 19 21 23 26 25 22 19 19 17 13 12 22 41 76 92 97 99 99 99 98 97 99 99 98
8 8 8 8 8 9 10 11 13 13 13 13 13 13 13 13 14 16 19 21 24 25 25 26 27 26 22 19 19 20 18 12 10 16 29 66 79 97 98 100 93 96 97
11 12 14 16 17 18 17 17 17 17 19 20 19 20 20 20 18 15 13 13 14 14 16 17 21 26 30 30 26 21 20 20 19 17 14 10 11 32 56 75 86 98 98
25 26 26 26 26 25 24 24 23 23 22 20 19 20 20 20 20 21 21 22 23 22 18 16 15 14 14 14 16 21 24 25 22 19 18 20 18 13 11 10 16 32 57
30 29 28 28 27 27 27 28 27 27 26 25 24 23 23 21 20 20 20 20 21 21 21 21 21 21 22 20 17 15 14 13 13 14 16 17 18 18 18 17 16 14 11
26 27 28 29 30 32 32 32 32 30 28 27 25 24 23 22 22 22 22 22 21 20 21 21 20 20 19 19 21 24 26 24 20 16 16 14 13 14 15 15 16 17 18
31 33 36 37 35 33 31 30 29 28 27 25 24 23 22 21 20 20 19 20 21 21 22 22 22 22 22 21 21 20 20 21 24 27 28 27 20 17 16 15 15 16 16
34 35 34 32 29 26 22 18 16 14 12 11 10 10 10 10 10 11 12 13 15 16 17 18 18 18 19 20 21 22 22 22 22 24 26 28 31 32 32 29 25 21 19
36 34 30 25 20 16 11 8 7 7 7 8 8 7 7 8 8 7 6 6 6 6 7 7 7 8 9 10 12 14 17 20 21 23 26 29 31 33 36 36 36 34 31
34 28 20 12 8 8 9 11 12 14 15 16 16 16 16 15 15 15 15 14 13 13 12 11 10 10 9 9 9 9 10 12 14 17 21 25 28 30 32 32 33 32 31
24 14 8 9 11 14 18 23 27 30 30 29 30 31 32 30 28 27 24 21 20 20 21 20 18 16 15 15 15 14 13 12 12 14 16 18 20 23 25 27 28 28 27
11 9 12 17 24 29 32 35 37 39 40 42 43 43 43 42 40 37 35 34 28 24 25 26 26 23 20 21 23 23 21 20 18 16 14 13 13 14 15 16 18 19 20

GFSGL_500_rhum_126.txt.gz
RH
67 37 9 20 58 87 94 87 96 95 98 94 96 95 85 99 80 92 98 99 98 90 86 88 94 98 95 97 96 96 96 96 84 73 64 58 63 79 95 77 35 13 13
70 30 10 27 74 98 99 95 96 90 96 96 96 98 90 92 95 98 97 97 96 92 89 92 99 100 98 100 93 95 96 92 94 83 78 73 76 79 88 94 93 40 13
76 25 89 36 48 87 93 85 97 83 94 97 96 98 96 93 97 97 98 95 93 88 86 90 96 92 92 86 88 85 88 85 94 94 95 94 84 88 90 83 89 72 14
68 91 30 71 89 99 87 83 100 95 98 91 97 95 96 98 96 97 88 88 83 77 75 82 79 74 80 84 82 87 90 82 81 93 96 90 80 92 94 89 90 70 21
64 97 95 98 100 76 84 95 98 100 97 99 94 90 81 96 94 92 90 80 68 68 62 57 62 66 58 57 55 53 57 55 65 71 92 78 86 89 99 95 87 83 56
70 95 93 96 96 100 99 97 97 100 94 96 98 97 91 96 82 57 55 51 34 28 32 35 47 51 56 51 48 54 46 49 92 78 66 66 78 84 85 96 88 78 83
80 58 58 59 50 67 86 97 96 85 84 52 52 33 38 68 29 28 30 24 29 22 24 37 62 55 47 43 46 47 60 48 43 49 54 53 61 68 77 86 97 88 82
56 51 80 100 88 62 77 97 82 92 96 89 78 82 66 54 41 53 44 59 76 93 74 70 79 72 66 62 56 50 57 55 45 45 45 78 80 77 78 86 89 93 89
100 99 100 100 100 100 100 97 89 79 74 75 81 89 87 80 70 67 67 65 63 63 64 64 64 59 50 50 47 43 47 43 40 35 40 54 79 81 84 86 95 96 89
27 54 60 63 63 67 75 74 63 58 49 41 38 33 33 37 51 70 76 72 70 65 60 58 57 61 60 62 61 59 58 54 43 39 58 82 92 79 81 97 94 95 97
42 42 42 40 38 35 35 35 34 33 35 32 32 32 30 29 29 30 25 22 24 30 50 66 74 60 43 55 74 49 41 34 35 44 49 57 69 64 92 100 98 93 93
16 15 13 11 10 9 10 10 10 11 11 11 11 12 15 19 25 28 30 29 28 28 25 23 26 46 53 75 78 64 62 81 99 100 99 95 80 89 98 100 99 100 98
8 8 7 7 7 7 7 7 6 6 6 6 6 6 6 6 6 7 8 11 15 20 21 22 24 24 23 22 24 52 85 96 100 97 99 71 85 97 98 99 97 98 99
10 9 8 8 7 7 6 6 7 7 6 6 6 6 6 5 5 6 5 5 5 6 7 8 11 17 23 25 20 17 16 20 40 66 89 83 99 100 97 98 98 99 98
10 8 7 6 6 5 5 5 5 5 5 6 6 6 5 5 5 6 6 6 6 7 7 7 8 11 12 14 19 25 25 22 19 17 21 32 49 84 96 99 99 99 99
8 7 7 7 6 6 7 6 7 8 9 9 8 8 10 10 11 10 10 11 11 11 10 11 10 10 11 14 17 19 20 22 25 23 20 19 19 23 26 42 86 98 99
12 13 13 14 14 15 15 16 17 15 14 14 15 17 15 14 14 15 15 14 14 15 15 16 16 16 15 14 12 12 13 17 21 27 28 27 19 18 19 17 14 13 32
21 22 19 18 19 19 19 18 17 16 16 17 17 18 22 20 19 19 20 19 19 19 18 16 17 18 17 17 17 16 16 14 12 13 15 19 27 29 26 21 19 18 18
25 21 19 16 16 17 16 16 16 16 16 17 18 19 24 26 24 25 27 27 26 24 23 21 20 19 18 17 18 18 18 18 18 17 16 15 13 13 15 19 24 24 21
22 21 20 19 18 17 18 18 20 22 23 24 23 22 22 22 21 21 21 22 24 24 24 23 22 21 20 19 18 17 17 18 19 19 19 19 20 19 19 16 14 14 14
24 23 23 22 21 22 22 22 22 22 20 18 17 17 16 14 13 12 12 12 12 14 16 18 19 19 20 18 18 17 18 19 19 19 20 20 19 19 19 23 26 26 22
29 28 26 26 26 25 25 22 18 15 11 8 7 7 7 8 8 8 8 7 7 7 7 7 7 8 10 11 13 15 16 17 19 20 21 20 21 22 22 22 22 24 29
33 32 32 32 30 27 22 16 10 8 10 14 17 19 20 20 20 19 17 15 15 13 13 12 10 8 7 6 6 6 6 7 9 11 13 16 19 20 21 22 23 25 26
38 36 37 35 28 21 13 9 13 20 24 26 28 30 30 31 32 33 32 30 29 28 25 23 19 18 16 14 13 11 10 8 8 7 7 8 10 11 13 16 20 23 25
41 43 38 29 20 12 11 19 23 25 27 30 32 34 34 34 35 36 38 39 41 40 36 33 32 28 23 21 21 20 19 16 14 13 12 11 11 12 13 16 18 21 23
51 40 28 18 11 16 22 24 25 29 31 33 35 36 37 38 40 42 43 44 47 50 48 46 40 38 33 28 24 26 26 23 20 19 18 19 18 16 15 15 14 16 18

GFSGL_500_rhum_129.txt.gz
RH
100 86 46 56 48 36 16 9 21 44 96 93 96 95 94 80 86 71 87 84 98 92 88 78 79 86 94 98 83 91 87 93 97 96 97 97 98 96 75 70 65 68 67
98 100 62 27 55 48 16 10 25 72 98 92 97 99 95 98 94 97 98 96 97 82 93 91 87 91 91 95 89 78 94 96 92 97 98 96 82 88 95 84 67 65 66
100 99 100 58 71 67 20 52 89 53 96 96 96 97 97 97 84 96 95 92 88 94 100 98 100 97 97 95 98 92 92 94 84 87 100 94 91 74 74 91 91 72 65
100 94 99 91 68 38 12 66 86 98 97 98 99 96 96 97 95 96 94 96 97 97 97 99 99 96 87 86 91 90 81 77 82 91 88 91 68 68 69 90 94 82 86
98 100 100 99 69 50 18 46 100 95 99 92 97 96 95 97 100 98 98 98 98 98 96 86 83 94 90 79 77 75 68 66 66 60 67 72 62 54 51 59 88 85 75
100 93 97 100 79 37 37 26 77 88 97 97 98 100 95 96 98 98 95 94 95 97 90 80 76 71 60 50 49 48 50 52 55 57 50 55 53 61 98 51 52 71 47
99 100 90 89 93 84 88 90 98 99 100 100 100 99 98 99 99 97 88 74 85 87 63 54 42 35 28 20 17 18 19 26 38 51 50 59 54 43 70 42 47 38 38
100 100 86 53 81 54 58 59 81 91 84 98 95 98 85 74 64 60 51 39 37 37 49 41 21 19 23 25 24 20 17 22 31 38 50 56 60 67 52 45 44 37 38
52 70 88 98 100 95 84 64 79 76 87 93 94 95 94 78 65 59 59 63 68 70 74 70 50 45 42 40 40 46 45 49 40 37 44 38 41 98 68 40 40 32 27
51 59 49 38 36 34 42 42 41 55 64 64 47 32 29 28 31 40 50 57 57 60 68 71 71 72 71 62 53 50 51 44 50 52 57 57 53 52 48 48 42 34 27
20 21 27 31 19 14 20 16 16 10 7 8 8 14 16 22 28 30 32 33 32 32 36 40 41 40 38 52 63 67 65 61 56 51 49 57 63 51 48 50 44 43 53
8 8 7 7 8 8 7 7 7 7 7 7 7 6 6 6 6 6 6 6 7 8 11 15 21 26 27 27 26 24 23 31 56 69 73 74 63 49 42 38 45 51 66
10 11 10 9 8 7 7 7 8 8 9 10 10 9 10 10 9 8 8 8 8 6 5 6 6 6 6 8 12 19 23 25 23 20 26 38 61 82 70 99 98 99 100
14 12 10 9 8 7 6 6 7 8 8 7 7 7 8 7 7 7 7 6 6 6 6 6 6 5 4 5 5 6 6 8 12 19 24 19 15 16 30 62 84 98 97
15 13 13 11 8 7 6 5 5 6 6 6 5 6 6 7 7 7 7 6 6 7 7 7 6 6 6 6 6 6 6 6 6 7 10 14 22 23 20 17 20 43 69
24 20 16 13 9 7 6 6 6 6 7 7 8 9 8 7 6 7 6 6 7 8 8 9 9 9 10 12 13 12 11 9 8 8 8 8 12 15 18 23 23 20 20
21 17 15 13 11 12 14 13 12 12 10 10 11 11 10 10 9 9 9 8 8 8 8 8 10 12 14 14 14 16 16 15 14 12 11 9 8 8 10 12 13 19 24
17 17 17 18 17 17 17 17 16 14 13 13 11 11 12 12 11 11 11 11 10 10 10 12 13 13 13 14 17 19 19 20 19 17 15 15 14 12 9 8 9 11 15
23 22 21 20 20 19 18 16 15 14 13 12 12 12 13 13 12 11 11 12 12 13 13 14 16 19 20 20 20 21 23 25 24 23 21 18 16 16 16 14 12 10 10
28 27 25 24 22 21 21 19 18 18 18 17 16 15 13 12 13 12 12 11 10 10 9 9 10 11 13 18 18 18 20 23 25 26 25 24 21 19 18 18 18 18 18
30 29 27 27 27 25 22 22 21 21 20 17 16 15 15 14 11 9 8 7 7 7 8 7 7 7 6 7 8 10 12 15 17 19 22 23 22 22 21 20 20 20 20
33 33 33 31 29 29 29 28 25 22 21 19 17 14 10 9 9 12 16 17 18 19 19 18 17 14 12 11 10 8 7 7 8 11 14 16 19 20 20 20 21 20 20
41 40 39 38 39 37 34 30 28 24 19 15 11 11 14 16 18 18 19 21 25 26 27 26 28 28 24 22 19 16 14 12 10 8 8 7 8 10 12 14 16 18 20
50 47 46 46 42 37 34 31 24 18 12 12 16 17 19 22 25 27 28 29 30 33 34 32 33 35 36 33 32 30 25 20 18 16 14 11 9 8 7 7 7 9 11
51 52 50 46 42 38 31 23 15 11 15 21 22 22 25 28 28 27 26 26 25 28 34 38 40 41 45 46 41 38 34 30 24 21 21 20 17 14 13 11 10 10 10
61 55 50 46 38 29 20 13 14 20 23 24 24 24 23 21 21 23 23 24 26 24 24 29 38 45 49 54 56 50 43 38 33 27 26 26 25 21 18 16 16 17 15

GFSGL_500_rhum_132.txt.gz
RH
84 83 80 80 54 43 83 94 62 34 8 8 12 27 68 94 96 95 76 77 79 89 81 73 69 71 69 58 62 68 79 80 83 97 84 83 82 93 96 97 97 98 98
76 100 57 88 100 78 63 69 54 34 10 7 10 34 79 95 98 97 95 79 82 74 72 71 69 76 70 61 90 82 86 95 98 100 88 85 72 77 95 95 84 81 95
96 100 98 82 100 57 89 68 56 53 26 7 9 18 66 83 79 96 94 95 96 79 75 70 82 85 78 80 79 89 100 98 97 94 95 76 74 70 58 77 71 56 64
93 92 100 100 99 87 40 62 64 65 38 8 10 32 97 96 95 96 96 96 96 95 88 89 100 91 88 81 77 89 92 98 99 100 94 82 74 73 74 76 70 60 61
93 78 100 100 83 85 98 97 97 68 48 12 17 71 93 97 97 97 96 96 96 97 92 96 99 96 95 98 87 99 93 96 95 95 93 84 76 65 65 66 60 52 39
100 97 70 74 95 99 100 66 83 72 88 70 50 32 98 95 98 97 98 98 97 98 99 98 98 98 98 96 94 92 98 96 95 97 86 71 64 64 63 55 49 42 37
96 96 100 98 99 100 98 94 75 80 87 84 83 89 99 100 98 84 98 97 98 97 97 97 98 97 97 93 97 84 79 62 46 36 26 26 30 33 33 45 51 32 26
90 99 100 99 100 92 77 74 63 40 42 80 97 100 97 98 100 99 99 97 96 98 97 96 98 91 85 80 64 62 45 29 23 18 15 14 11 11 12 16 36 33 27
68 51 49 59 60 79 92 87 74 69 86 86 82 93 93 90 97 98 99 100 99 98 98 92 74 60 63 62 50 46 43 35 22 24 24 20 26 27 20 15 27 45 42
24 24 28 20 27 29 28 32 36 41 43 49 58 60 62 73 82 91 96 87 72 68 70 73 70 68 66 64 58 43 41 33 26 29 27 22 27 33 32 31 26 26 25
9 9 9 9 8 9 17 23 18 20 28 19 18 12 8 8 8 15 32 33 32 32 33 33 32 34 35 38 42 48 49 52 53 52 47 48 46 46 42 44 45 48 49
11 11 11 10 9 9 8 8 9 9 9 9 10 11 11 11 11 11 11 10 10 9 9 8 9 10 13 13 15 16 18 22 26 29 30 29 29 31 34 40 47 52 50
13 14 14 12 11 12 12 12 13 14 14 13 12 13 11 8 7 7 6 5 5 6 7 8 9 10 10 10 9 9 8 7 6 6 6 7 12 18 23 24 23 24 35
18 16 15 15 16 16 17 18 18 13 9 8 9 8 9 10 10 8 6 4 5 5 5 5 5 5 5 5 5 5 5 6 6 7 8 7 5 5 6 6 6 13 20
23 25 23 22 24 24 26 21 16 13 9 8 7 6 6 7 8 8 8 8 8 8 8 7 7 6 6 6 6 6 5 5 5 4 4 4 4 5 4 4 5 6 6
27 24 23 21 22 28 23 19 18 14 10 9 11 12 13 12 12 12 11 10 10 9 9 8 8 8 8 8 8 7 6 7 7 7 7 7 6 5 4 4 4 4 5
30 29 28 29 26 22 20 16 12 10 12 13 14 14 13 13 13 12 11 10 9 9 9 9 9 9 10 9 8 8 8 8 8 8 7 7 7 8 9 9 8 6 5
30 26 24 20 17 15 13 14 16 17 17 16 16 15 14 14 13 12 11 10 10 10 9 9 9 9 8 8 8 8 8 8 8 8 8 7 8 9 10 12 12 12 11
33 28 25 23 24 23 22 21 20 20 18 18 17 16 15 14 12 12 12 12 11 10 10 10 9 9 8 7 7 7 7 8 9 10 11 11 10 13 16 16 17 18 17
34 32 30 29 27 25 23 21 20 21 20 19 17 16 14 13 14 14 14 13 12 12 11 9 8 7 7 7 7 8 7 7 6 6 7 9 10 12 18 21 22 24 25
36 37 35 32 31 27 26 29 31 29 26 26 23 22 21 18 16 15 14 12 10 8 7 8 10 11 12 14 15 16 17 16 13 11 8 7 7 8 11 17 20 22 26
42 40 37 28 20 24 36 39 36 34 33 30 27 23 21 18 15 12 10 8 9 12 14 15 15 16 18 19 20 21 23 23 23 20 15 12 10 9 8 9 12 15 18
33 22 15 15 23 40 44 42 41 39 32 28 24 20 16 12 10 11 15 17 18 18 19 20 21 23 26 27 28 29 30 29 30 28 26 22 18 15 12 11 10 10 12
16 16 17 32 47 49 47 44 38 34 28 22 16 11 10 13 19 22 23 22 22 21 20 19 20 21 23 25 28 32 35 36 37 38 35 32 28 22 20 18 15 12 11
16 22 45 56 55 50 44 38 32 25 19 12 10 13 20 23 25 25 25 23 20 19 21 23 25 25 26 25 23 25 36 42 44 49 46 39 34 30 25 24 23 20 17
36 60 62 57 51 44 38 30 23 14 11 12 20 24 26 26 28 25 22 20 23 28 30 30 29 30 31 32 31 27 30 44 50 57 57 50 41 35 30 28 30 27 24

GFSGL_500_rhum_135.txt.gz
RH
56 49 45 65 82 70 51 100 99 75 46 28 23 14 6 7 11 19 96 97 96 95 96 90 75 66 64 66 61 55 57 49 47 67 78 78 83 84 84 77 87 91 98
77 58 69 95 88 83 43 100 100 77 52 35 29 25 10 7 8 18 43 98 97 96 94 91 80 80 72 59 55 53 54 52 51 58 84 88 83 81 82 66 76 89 97
97 80 80 88 65 98 100 52 78 93 73 53 42 28 18 9 7 11 25 78 95 98 98 93 79 76 73 63 63 64 63 61 58 89 98 94 94 94 93 87 75 68 67
100 100 99 97 97 100 100 89 89 52 60 52 50 35 30 14 7 7 12 33 77 93 97 97 93 80 76 69 65 78 76 79 74 71 83 94 94 96 94 88 82 68 65
100 98 99 100 98 100 100 87 99 99 59 48 74 47 30 19 9 10 13 25 98 98 88 98 98 95 100 96 90 98 97 94 91 99 98 97 100 99 95 93 92 80 62
95 100 99 100 100 99 100 97 89 100 99 100 92 54 27 19 9 10 80 96 94 97 96 97 98 97 96 96 92 97 97 96 93 100 89 99 99 99 98 92 88 83 72
98 100 100 100 100 100 100 100 100 98 99 100 100 100 72 13 18 19 92 90 95 98 98 98 98 98 97 96 99 99 98 98 96 100 98 96 98 95 90 85 77 75 67
88 86 88 97 99 98 100 100 83 98 97 94 100 100 92 33 68 34 76 95 97 98 97 98 98 98 98 99 96 98 98 97 98 98 98 98 98 82 58 46 36 25 21
97 96 93 77 59 79 90 72 39 78 76 79 98 95 99 100 96 96 98 97 98 99 99 100 99 95 96 97 98 96 94 92 96 98 96 77 62 57 46 32 23 20 15
14 15 10 13 30 32 30 11 8 8 11 22 40 39 92 100 100 100 90 90 93 95 96 95 97 96 96 97 97 96 92 95 96 92 65 41 45 48 43 34 28 24 22
10 11 12 10 9 8 8 8 8 8 8 8 11 22 24 32 40 50 70 72 22 13 12 31 69 74 67 62 47 43 46 47 79 92 64 54 47 44 41 35 34 30 31
11 12 15 14 11 10 10 11 12 12 13 14 14 14 14 14 14 14 13 11 9 7 7 7 8 7 9 12 12 11 12 12 10 13 17 23 26 27 28 29 30 30 31
14 16 17 15 14 15 17 21 23 23 22 20 17 14 12 11 10 9 8 8 7 7 7 6 7 8 6 4 3 4 8 10 10 10 10 10 10 10 12 13 14 14 14
16 20 20 22 23 25 24 23 23 27 26 21 17 16 15 13 12 9 7 6 6 5 4 4 4 4 3 3 3 3 3 3 3 4 6 8 9 9 8 9 9 10 10
20 23 28 29 24 23 22 24 25 21 21 23 21 16 13 11 10 9 8 7 8 10 10 10 9 8 7 7 6 5 5 5 5 5 6 5 4 4 4 4 5 5 7
31 33 33 32 34 33 31 28 22 20 16 13 13 12 12 11 10 11 11 12 12 11 10 10 9 9 8 8 8 7 7 6 6 6 6 5 6 5 5 5 5 5 5
42 42 40 38 33 30 25 21 18 16 14 12 12 12 14 15 14 14 14 14 13 12 11 10 9 8 8 8 8 8 8 8 8 8 7 6 6 6 6 6 6 5 6
62 76 77 55 30 28 24 20 17 15 16 17 17 16 15 14 14 14 14 12 11 9 8 8 8 7 6 6 6 6 6 6 6 6 6 6 6 6 6 6 6 7 7
81 56 41 33 29 27 23 19 18 20 20 18 16 12 12 14 17 16 14 12 12 13 11 9 8 8 7 6 6 6 6 6 5 5 5 5 5 5 5 5 6 6 7
53 46 42 40 34 26 21 20 18 18 15 11 10 10 11 17 17 16 17 18 15 13 10 9 8 8 8 7 6 6 5 5 5 7 7 6 6 6 6 6 6 7 8
55 50 41 31 27 25 22 17 13 12 11 11 12 17 21 19 18 17 16 13 10 9 9 9 7 6 6 7 10 12 13 14 14 14 13 13 13 12 12 12 10 8 7
62 48 36 30 21 14 14 14 14 14 17 24 29 27 25 24 21 18 14 12 11 8 6 6 7 11 14 15 15 16 17 17 17 18 20 20 19 18 20 19 17 15 12
44 36 22 16 16 16 16 15 20 32 36 34 32 29 25 22 19 16 12 8 6 8 12 15 16 16 17 18 18 18 17 16 17 18 23 27 27 27 28 27 24 21 16
23 18 18 18 16 16 21 37 44 42 39 35 30 27 22 17 11 8 8 13 18 19 20 20 21 20 18 17 17 17 18 20 21 20 20 23 28 32 34 34 33 28 24
19 19 18 16 20 37 51 51 48 41 35 30 25 19 11 9 11 18 22 22 23 24 23 20 19 19 19 20 21 24 25 26 27 28 28 25 27 39 42 46 44 36 32
20 18 21 35 55 59 58 50 43 35 29 21 12 10 12 19 24 26 27 28 26 23 21 23 26 29 30 30 26 26 27 27 28 30 31 30 30 44 51 56 53 43 36